GFSWCAN_925_temp_042.txt.gz
Temp
10 10 9 9 9 9 7 7 7 7 7 7 7 7 8 8 8 8 8 7 7 6 7 7 8 8 8 7 7 8 7 8 7 8 8 8 9 9 9 9 9 10 11 12 12 15 16 13 14 14 13 15 14 15
11 10 10 10 10 9 7 7 7 7 7 7 8 8 8 8 8 8 8 8 7 7 7 7 7 8 7 8 8 7 7 8 8 8 8 8 9 8 9 10 9 10 9 10 10 11 10 12 11 12 13 13 13 13
12 11 10 11 11 10 7 7 7 7 7 7 8 8 8 8 8 8 8 7 7 6 5 6 8 9 9 8 8 8 7 8 9 7 7 8 9 8 9 9 9 9 9 9 10 10 10 12 12 12 12 12 13 13
12 11 11 11 12 12 8 8 7 7 7 7 7 8 8 8 9 9 9 8 8 6 6 7 9 9 8 8 8 7 7 7 8 6 7 8 8 7 8 8 9 8 9 8 9 11 11 13 11 11 12 12 12 13
12 11 11 11 13 13 12 10 7 7 7 10 9 10 10 9 9 9 8 8 8 7 7 6 8 9 9 9 8 8 7 6 6 7 6 8 8 7 8 8 8 9 9 9 10 10 9 9 10 11 11 11 11 11
12 11 11 12 14 14 13 13 12 9 11 10 11 11 11 10 9 8 9 8 8 7 6 8 7 8 9 9 8 6 6 6 6 6 6 6 7 7 8 9 8 8 9 8 9 9 10 10 10 11 11 11 11 11
12 12 13 13 14 14 13 13 13 13 11 11 10 10 11 10 9 8 8 8 8 7 7 9 8 7 8 7 5 5 5 4 6 6 6 6 7 6 7 8 8 9 9 9 9 9 10 10 9 9 10 11 11 11
12 12 13 14 14 14 14 14 13 13 12 11 10 10 10 10 9 9 8 8 8 7 6 10 11 10 8 6 6 4 5 4 5 6 7 7 7 6 7 9 9 9 8 8 8 8 8 9 10 9 10 10 10 11
12 12 13 14 14 14 14 14 14 13 12 11 10 10 9 9 9 9 8 8 8 7 5 7 9 12 7 7 5 5 5 7 5 7 7 6 7 7 8 8 8 8 8 8 8 8 8 9 9 10 10 10 10 10
12 12 14 14 15 15 15 14 14 13 12 11 10 9 9 8 9 8 7 8 8 7 4 7 8 9 9 10 10 9 10 9 9 7 7 5 6 7 8 7 8 8 8 7 7 7 7 8 8 8 8 9 10 10
13 14 14 15 15 15 14 14 14 13 11 11 9 9 8 8 8 9 10 9 9 9 7 7 8 9 8 11 10 9 10 10 8 8 9 6 6 6 7 7 7 8 8 6 6 7 7 7 7 7 7 7 7 7
13 14 15 15 15 15 15 15 14 12 12 11 10 9 8 9 10 10 10 10 10 12 9 10 10 9 8 9 10 10 11 7 7 7 5 7 8 8 7 7 7 7 8 7 6 6 6 6 6 6 6 6 5 5
14 15 15 16 16 15 15 15 15 12 11 11 10 11 10 10 11 14 10 10 11 11 11 10 12 9 9 9 10 10 10 8 6 8 7 7 8 7 7 6 7 7 7 7 6 6 6 5 6 6 6 5 5 5
14 15 15 16 15 15 15 16 16 14 11 11 12 11 12 13 14 12 11 11 10 9 10 8 10 10 8 10 8 12 8 8 8 4 5 7 7 7 6 6 7 7 7 7 7 6 6 5 5 5 5 5 5 5
15 16 16 15 15 16 17 16 16 13 12 12 12 12 14 13 11 11 10 10 10 9 8 10 9 9 9 10 8 9 10 7 9 6 7 7 7 7 7 7 6 7 6 6 7 7 7 6 5 5 6 5 5 5
15 16 15 15 16 16 17 16 13 13 12 12 12 14 12 14 12 12 11 11 9 8 8 9 11 11 11 9 11 10 8 6 8 7 6 6 7 7 7 6 6 7 7 7 7 7 7 7 7 6 6 6 6 5
15 16 16 15 16 16 15 15 14 12 14 16 14 13 13 12 13 11 10 11 9 11 11 10 13 13 9 10 11 8 8 8 7 7 5 5 6 7 6 6 8 8 8 8 8 8 8 8 8 7 6 8 6 6
14 14 14 15 16 16 15 14 14 15 16 14 16 16 11 11 12 11 10 9 11 10 10 14 9 13 12 12 10 8 7 7 6 5 5 5 6 7 7 7 9 9 8 9 9 9 9 8 7 7 7 8 8 7
15 16 15 16 16 15 13 15 14 16 15 13 12 11 11 11 9 9 10 11 10 9 10 10 12 11 10 8 9 8 6 6 6 6 5 7 8 7 8 8 9 9 8 9 9 9 7 8 9 9 8 8 7 7
15 15 15 16 16 14 15 13 14 14 15 14 11 12 11 11 9 9 10 10 10 11 13 13 12 12 10 9 7 7 7 5 6 7 7 7 8 8 8 8 8 8 8 8 9 9 8 8 8 8 9 9 8 7
15 15 15 15 15 13 12 12 13 12 12 13 11 11 11 10 11 10 10 8 11 12 13 11 11 10 10 10 9 8 7 7 6 7 7 6 8 7 8 8 8 7 7 7 7 7 8 7 8 8 8 8 8 8
15 15 15 15 14 13 12 13 13 12 13 13 13 11 11 11 10 10 9 10 11 11 10 11 10 11 10 9 8 9 10 9 8 8 7 7 6 5 5 6 7 6 7 7 7 8 8 9 8 8 8 7 8 8
15 15 15 14 15 12 13 13 15 14 15 14 12 14 12 11 10 10 11 10 10 9 10 11 11 11 9 10 9 10 10 9 7 8 7 7 7 7 7 7 7 8 9 9 8 9 8 8 8 8 8 7 8 7
14 14 14 14 13 13 13 15 12 12 13 13 13 14 12 11 10 11 11 10 9 9 10 10 9 8 9 8 7 8 10 10 9 8 8 8 6 6 7 7 8 8 8 8 7 9 9 8 7 7 7 7 7 7
10 14 12 9 12 15 16 16 15 14 14 12 14 13 12 10 11 11 11 9 9 9 8 8 8 8 8 7 7 9 9 9 8 7 8 7 6 6 6 7 8 8 8 9 7 7 7 7 7 6 7 7 6 6
9 13 13 16 15 15 16 16 15 14 13 14 13 11 10 11 13 12 10 9 9 9 9 9 9 8 7 8 7 8 10 10 10 8 9 9 7 6 5 6 5 7 7 8 8 7 8 8 7 8 7 7 7 6
11 15 13 11 13 13 13 12 12 13 14 15 12 12 12 13 13 12 9 8 8 10 11 11 11 9 8 9 10 11 12 11 9 10 10 9 9 8 8 8 6 7 7 8 7 7 7 7 7 7 6 6 6 6
13 13 16 15 13 13 15 13 13 13 13 12 12 14 14 14 13 10 9 12 11 11 11 11 11 10 10 9 9 9 8 8 9 10 9 8 7 7 7 7 6 6 7 7 7 7 7 7 7 7 6 6 6 6
13 13 13 15 15 13 13 14 14 12 11 11 13 13 12 11 10 10 12 11 11 11 10 9 9 9 9 9 9 7 7 8 8 7 7 5 5 6 7 6 5 6 6 6 6 6 6 6 6 6 6 6 6 6
14 12 15 15 16 16 15 12 12 10 10 10 10 10 10 10 11 12 12 13 13 10 10 10 9 9 8 7 6 6 6 7 7 6 4 5 6 7 6 7 6 5 5 6 6 6 6 6 6 6 5 5 5 5
13 13 15 15 16 14 13 10 10 10 10 10 10 10 10 10 11 11 11 12 12 11 10 8 7 8 7 6 6 6 5 5 6 6 6 6 6 6 6 6 6 5 6 6 6 6 6 5 6 5 5 5 5 5
13 15 16 16 15 12 12 13 12 12 11 11 11 10 10 11 11 9 11 11 10 9 9 9 7 6 7 7 6 6 5 5 5 5 5 5 6 6 6 6 6 5 5 5 5 5 5 5 5 5 5 4 4 4
15 15 14 14 13 14 13 14 13 12 12 12 11 11 11 11 12 9 10 11 11 10 9 9 8 7 7 7 6 5 5 4 4 4 5 5 5 5 5 5 5 5 5 5 5 5 5 5 4 4 4 4 4 4

GFSWCAN_925_temp_045.txt.gz
Temp
11 10 10 10 11 10 8 7 7 7 7 7 8 8 8 8 8 8 7 8 7 7 10 9 8 8 9 8 7 8 10 8 8 8 9 9 9 9 10 9 9 9 10 10 10 10 11 11 15 16 15 14 14 14
11 10 11 11 11 11 9 7 7 7 7 7 8 8 9 9 8 8 8 7 7 7 9 8 8 8 7 8 8 8 9 8 8 8 8 8 9 9 9 11 9 10 8 10 9 10 8 11 13 14 14 13 13 13
11 11 11 11 11 12 11 8 7 7 7 7 8 8 9 9 9 8 7 7 7 8 10 9 11 9 8 7 7 8 9 9 9 8 8 8 9 8 9 9 9 9 8 8 9 9 10 12 12 13 13 12 13 13
12 11 11 12 13 13 13 11 8 7 7 8 8 8 9 9 9 9 8 8 7 7 10 13 9 10 8 8 8 8 9 9 9 9 9 9 9 8 8 8 8 8 9 8 9 9 10 11 11 11 12 12 12 12
12 11 12 13 13 13 13 13 11 10 10 10 10 10 10 10 10 9 8 8 8 8 12 14 11 9 8 9 9 8 9 9 10 10 9 8 8 7 8 8 8 8 8 8 9 9 9 10 11 11 11 11 12 12
12 12 12 13 14 14 14 13 13 13 12 11 10 10 9 9 9 9 9 8 8 7 9 13 11 10 9 9 9 8 7 8 8 8 8 9 8 7 8 9 8 9 9 8 8 8 9 10 10 10 10 11 11 11
12 12 12 14 14 14 14 14 13 13 12 11 11 10 10 9 9 10 11 8 8 7 9 12 12 9 8 7 9 9 8 7 8 8 9 8 8 7 7 8 9 10 10 9 8 8 9 10 10 10 11 11 11 11
12 12 12 14 14 14 14 14 13 13 12 11 11 10 10 9 9 9 8 8 8 8 8 12 13 11 9 9 9 7 9 9 8 8 9 8 9 8 9 9 10 10 10 9 9 8 8 9 11 10 10 11 11 11
12 11 13 13 14 14 14 14 13 13 12 11 10 9 9 8 9 9 8 8 7 8 10 9 11 13 8 8 7 9 9 9 8 10 9 9 8 8 9 9 10 9 9 8 9 8 8 8 8 8 8 9 10 11
13 13 13 14 15 15 15 14 13 13 11 11 10 9 12 8 9 8 7 8 8 8 8 9 9 12 11 10 10 10 10 10 10 10 9 7 9 10 10 10 10 10 9 9 8 7 7 7 7 7 7 7 7 8
13 13 13 14 15 15 15 14 14 12 10 10 11 12 9 8 8 10 12 11 12 12 9 9 9 11 11 13 12 11 10 10 9 9 10 8 10 11 10 10 10 10 9 9 9 9 7 7 7 7 7 6 6 6
13 13 14 15 15 15 15 15 14 11 11 11 11 9 8 9 12 13 13 14 14 16 14 13 13 10 11 10 11 11 11 10 10 11 10 11 11 12 11 11 10 10 10 9 8 8 8 8 8 8 7 6 6 6
13 14 15 16 16 16 15 15 14 11 11 10 10 12 13 13 13 15 12 15 17 17 15 14 14 12 10 11 11 11 13 12 11 11 10 11 12 12 11 11 11 10 9 9 9 8 8 8 7 7 7 7 7 6
14 14 15 17 15 14 15 15 14 10 10 14 14 11 15 16 17 17 17 17 17 15 16 14 12 12 11 13 13 14 12 12 12 11 11 13 12 12 11 11 10 11 10 10 9 9 8 8 8 7 7 7 7 6
14 15 15 14 14 15 16 15 13 11 11 15 15 14 16 17 16 17 15 14 15 13 13 13 14 14 14 14 13 13 13 11 11 12 13 13 12 12 12 12 11 11 11 10 10 9 9 9 9 8 8 7 7 7
15 15 15 15 15 15 15 14 11 12 12 14 14 17 17 16 19 17 17 17 15 14 13 14 15 15 14 14 14 13 13 12 13 12 13 12 11 12 12 11 11 10 10 11 10 10 10 10 10 9 9 8 8 7
15 15 16 15 14 15 13 12 12 14 16 16 18 16 17 17 18 18 17 17 12 15 17 15 16 15 13 14 14 12 12 13 13 13 12 10 11 11 11 11 11 11 11 11 10 11 11 10 10 10 10 9 9 8
13 13 13 12 14 13 12 12 14 16 17 18 18 19 16 17 17 16 15 14 15 15 13 15 14 15 14 13 14 13 12 12 12 12 12 11 10 10 10 10 11 11 11 11 11 10 10 10 11 11 10 9 10 9
14 15 15 15 14 13 14 14 14 18 19 18 17 16 16 15 12 11 12 13 12 12 14 14 14 14 11 9 10 14 13 13 13 12 12 10 10 10 9 10 10 10 11 11 11 11 10 9 10 10 10 10 10 10
15 15 15 15 14 13 16 16 13 16 18 18 16 17 16 14 12 12 13 13 13 13 15 12 12 13 11 10 13 13 13 12 12 13 14 13 11 10 10 10 11 10 10 9 10 10 10 10 10 10 9 9 10 10
15 15 14 14 13 12 15 16 17 17 17 17 15 16 16 13 14 13 14 11 15 14 14 12 12 13 13 12 12 11 11 11 13 13 13 13 11 10 11 10 9 10 11 11 12 10 10 10 9 9 9 9 9 9
14 14 14 13 14 14 15 15 16 15 16 17 17 15 15 15 14 13 12 15 15 13 12 14 14 14 14 13 12 10 11 11 9 10 8 9 12 12 11 10 11 11 11 11 11 11 11 9 9 9 9 9 8 8
14 14 14 14 16 13 14 14 17 17 18 17 16 16 15 15 14 12 14 13 14 13 12 12 12 11 11 10 10 10 10 10 11 11 10 10 9 9 10 9 10 11 11 9 9 9 9 8 7 8 8 9 9 9
13 13 15 16 16 15 16 17 16 16 16 17 16 16 15 14 13 14 14 14 14 13 12 12 12 14 13 12 13 12 10 9 10 9 9 9 10 8 8 8 8 8 8 9 9 9 9 8 7 8 8 8 8 8
11 14 13 9 14 16 18 18 17 17 16 15 16 16 15 13 15 15 14 14 14 14 13 12 13 13 14 14 13 11 8 10 11 9 9 9 8 9 9 8 8 7 7 9 9 9 8 8 8 6 7 8 8 8
9 14 13 18 17 18 18 18 18 17 16 16 16 15 14 14 15 15 15 14 14 13 13 14 14 15 14 12 13 12 11 11 9 11 9 8 9 9 8 8 9 8 7 7 8 8 9 8 8 7 6 7 7 8
11 17 16 14 16 17 16 15 15 16 17 17 16 15 15 15 16 15 13 13 13 12 11 10 11 12 11 11 10 9 9 8 8 9 8 8 8 8 8 8 8 6 6 7 7 8 8 8 8 8 7 7 7 7
16 16 18 17 16 17 18 16 16 16 17 16 15 17 17 17 16 15 14 12 11 9 9 9 9 9 9 8 8 8 8 7 7 7 6 6 6 6 6 6 5 6 6 6 6 7 7 7 8 7 7 7 6 6
16 16 16 17 17 16 17 17 18 16 15 15 17 17 16 14 14 14 12 10 9 10 11 10 9 8 8 7 7 7 7 9 10 10 9 9 8 7 6 7 6 6 6 6 6 6 6 7 7 6 7 6 6 6
18 16 18 18 18 19 18 16 16 13 13 15 14 13 13 12 11 11 10 10 11 12 11 10 9 10 10 9 8 7 6 6 7 8 9 9 8 7 7 7 6 6 6 6 6 6 6 6 6 6 6 6 6 6
17 17 18 18 19 18 16 14 13 13 14 14 13 14 14 13 11 11 11 10 10 10 10 9 9 9 9 9 9 8 7 5 5 5 5 5 6 6 6 6 6 5 5 6 6 6 6 6 6 6 6 6 6 6
17 18 19 19 18 14 15 15 16 16 14 15 14 13 13 13 14 11 10 10 10 11 9 9 9 7 6 6 5 5 5 5 5 5 5 5 5 5 5 5 5 5 5 6 6 6 6 6 6 6 6 5 5 5
17 18 18 17 16 16 15 15 16 15 14 15 15 14 14 15 15 11 9 10 10 10 9 8 7 6 5 5 5 4 4 4 4 5 5 5 5 5 5 5 5 5 5 5 6 6 6 5 5 5 5 5 5 4

GFSWCAN_925_temp_051.txt.gz
Temp
13 12 12 12 12 12 12 10 7 7 8 8 9 9 9 10 10 9 12 10 11 17 18 17 15 13 14 12 12 14 14 13 10 10 10 11 11 11 9 10 11 13 13 12 13 13 13 14 14 12 16 11 10 15
13 12 12 12 12 13 13 10 7 7 8 8 9 9 9 10 10 10 11 10 10 10 17 16 16 15 14 14 13 13 13 11 9 9 9 9 10 10 10 11 9 11 12 11 12 13 13 12 10 11 9 9 10 14
13 12 12 12 12 13 14 13 8 7 8 8 9 9 9 10 10 9 12 11 10 15 17 18 19 16 15 15 14 12 14 13 11 12 9 8 9 9 10 10 9 9 8 8 8 10 10 10 8 9 9 9 11 12
13 13 12 12 12 14 14 13 9 9 9 10 9 9 10 10 10 10 11 13 14 17 18 19 17 17 16 16 15 15 15 14 14 13 11 9 9 8 9 9 8 8 8 8 8 8 7 9 10 9 10 11 11 12
13 13 12 12 12 13 14 14 12 11 11 11 11 11 10 10 10 10 11 13 14 15 18 19 19 19 16 16 16 17 17 16 14 11 12 11 10 8 8 8 8 9 8 8 8 7 8 8 8 9 10 10 11 12
13 12 12 11 12 13 14 14 13 13 12 11 11 11 11 10 10 10 13 13 14 13 16 17 20 19 17 16 14 17 17 18 17 17 16 16 15 11 11 9 10 11 10 9 7 7 7 8 7 8 10 10 11 11
13 12 12 12 12 13 14 14 14 13 13 12 11 10 10 10 10 12 14 12 12 12 15 16 17 19 17 16 17 16 17 18 19 19 18 17 16 14 14 10 13 14 13 10 9 9 7 7 7 8 8 9 10 10
13 13 12 12 12 14 15 14 14 13 13 12 11 10 10 10 10 12 12 10 10 13 17 16 18 18 17 18 16 15 17 15 18 19 19 18 17 15 11 13 13 15 15 13 11 10 8 8 8 8 8 8 8 9
13 13 13 13 13 14 14 14 14 13 13 12 11 10 11 11 13 13 11 10 11 13 15 14 16 17 18 17 18 17 17 15 19 15 16 16 12 10 13 13 13 14 14 14 14 13 12 11 9 9 8 8 7 8
13 12 13 13 13 14 14 14 14 13 12 11 10 14 17 13 11 10 11 12 12 14 16 15 18 17 19 17 17 18 18 18 15 17 17 12 10 13 15 16 14 14 15 15 14 13 12 11 11 11 8 8 8 8
13 13 13 13 14 15 15 15 14 12 11 13 18 20 13 10 12 14 18 19 20 19 20 20 20 19 20 17 15 18 17 15 12 17 17 13 12 14 16 16 16 15 15 15 15 14 13 13 12 12 12 10 8 8
13 13 13 13 15 15 15 15 14 12 17 16 15 16 15 14 17 19 21 22 21 20 22 22 21 20 18 17 16 16 16 16 15 19 17 11 13 16 16 16 16 15 15 15 14 14 13 12 12 13 12 11 10 8
13 13 13 14 16 16 16 15 14 14 13 15 16 19 20 20 16 20 16 20 21 23 23 23 21 20 16 16 14 15 15 15 20 17 12 14 15 17 17 17 17 17 15 14 14 14 13 13 12 12 12 12 11 10
13 13 13 14 14 13 14 14 15 13 11 19 21 15 21 21 21 22 23 23 24 23 23 23 20 15 16 16 15 16 17 19 17 14 12 16 15 17 17 17 17 17 17 14 14 14 13 13 13 13 12 12 11 10
13 13 15 13 14 14 15 15 14 11 17 20 22 17 22 24 24 23 23 22 19 21 22 21 20 18 15 16 16 18 16 16 16 13 15 16 16 16 16 15 16 17 17 15 14 14 14 14 13 14 14 13 11 11
13 13 12 14 14 14 15 14 10 15 19 21 21 22 24 23 24 23 23 22 23 22 21 18 18 15 12 11 11 10 13 13 14 15 17 16 16 16 16 16 16 16 16 16 15 15 14 15 15 14 14 14 12 11
14 16 15 14 12 13 12 12 17 19 21 22 23 24 23 23 23 24 23 23 22 22 20 18 15 11 14 12 11 12 14 15 16 18 18 16 16 16 16 16 16 16 16 15 15 15 15 15 15 15 14 14 14 13
14 15 13 12 12 12 14 14 20 22 21 23 23 24 24 23 22 23 23 22 22 22 20 17 15 14 14 14 14 16 16 17 18 18 17 16 16 15 16 16 15 15 15 15 15 15 15 15 15 16 15 15 15 15
13 13 13 13 12 14 20 20 20 22 24 25 25 24 24 22 21 22 22 21 20 21 20 18 16 16 16 16 16 16 16 17 17 16 16 16 16 15 15 15 15 15 15 14 15 15 15 14 15 15 15 15 15 14
15 15 14 14 14 18 21 22 21 22 23 24 24 24 24 23 22 23 22 22 22 21 17 17 16 16 16 16 16 17 18 18 18 16 16 16 17 16 16 15 16 15 15 14 14 13 14 14 15 14 14 14 14 14
14 14 14 13 13 17 22 23 23 24 24 24 25 24 23 23 22 22 22 22 20 21 19 18 18 18 18 18 18 17 17 17 17 16 14 17 17 16 16 15 15 16 15 14 14 14 13 14 14 14 13 14 14 13
16 15 16 15 19 21 21 23 23 24 23 24 24 24 23 22 22 22 22 21 20 21 20 19 18 19 18 17 17 16 16 15 15 15 14 15 16 16 15 15 14 14 14 14 14 12 14 13 13 12 13 13 13 12
15 15 18 20 20 19 18 22 22 23 23 24 24 23 23 22 22 21 21 19 19 20 19 18 17 17 17 17 16 16 16 16 15 14 15 14 13 14 14 14 14 14 14 11 11 13 12 12 12 12 12 13 12 12
15 18 20 21 20 18 23 23 24 23 24 24 24 23 22 22 22 22 20 20 21 20 19 18 18 18 18 17 18 16 16 16 16 15 14 12 13 13 13 13 12 13 13 13 12 10 11 12 11 12 12 12 12 12
15 16 17 12 22 22 23 23 23 24 23 23 23 23 22 22 21 21 19 20 21 20 20 19 19 18 17 18 18 17 16 16 16 14 13 12 11 12 12 10 11 12 12 11 10 11 7 11 11 11 11 11 11 11
13 20 15 23 23 23 23 23 23 24 24 23 24 23 22 22 20 19 19 20 19 18 19 19 19 19 19 17 17 16 15 15 15 13 13 13 12 12 11 11 11 12 12 12 11 8 9 9 9 8 9 10 9 9
15 22 23 24 24 24 24 24 24 24 23 23 24 23 22 21 19 20 20 19 19 18 17 18 17 17 17 16 15 14 14 14 14 13 11 11 11 11 10 11 11 11 11 11 11 10 11 11 10 10 9 10 10 10
22 23 23 24 24 25 24 24 24 24 24 24 24 22 22 22 21 20 20 18 17 17 17 16 16 15 15 15 15 14 13 13 13 12 11 11 11 11 10 10 10 9 9 8 9 9 10 10 8 10 10 10 10 10
22 24 24 23 24 25 24 24 24 24 25 25 23 22 22 21 21 19 18 18 17 18 18 17 16 16 15 14 14 14 14 14 14 12 12 12 11 11 10 10 10 10 10 9 8 9 9 9 10 9 9 9 9 9
23 25 24 24 24 24 25 25 25 26 25 24 23 21 20 19 17 17 16 17 17 18 17 17 16 16 16 15 14 13 12 13 13 14 14 13 12 11 11 10 10 10 10 10 10 9 8 9 9 9 9 9 9 9
25 25 24 25 25 25 25 25 24 23 23 22 21 22 17 16 16 16 16 17 17 17 17 17 16 15 15 14 14 14 12 11 11 11 12 12 12 11 10 10 10 11 10 10 10 10 9 9 9 9 9 9 8 8
25 24 25 24 22 20 24 23 24 23 23 21 18 18 16 17 17 16 15 16 17 17 15 16 15 14 13 11 11 11 11 11 11 11 11 11 11 11 11 11 10 10 10 10 10 9 9 9 9 8 8 8 8 8
25 26 25 25 25 24 24 23 22 21 20 20 17 18 19 17 17 16 14 15 17 17 16 14 13 12 11 11 10 9 9 7 6 7 8 8 8 8 10 11 10 10 10 10 10 9 9 9 9 8 8 8 8 8

GFSWCAN_925_temp_057.txt.gz
Temp
13 12 13 13 13 13 12 13 13 10 10 9 10 11 11 12 12 12 14 14 14 15 18 19 19 17 16 15 14 15 15 13 12 11 10 10 10 10 9 9 9 10 10 11 11 12 12 12 12 11 10 10 10 11
12 12 13 13 13 12 12 14 14 12 12 10 9 10 11 11 12 12 13 14 14 14 16 17 18 19 18 17 16 15 14 14 12 12 11 10 9 10 10 10 11 9 9 9 9 10 11 11 9 9 9 9 9 9
12 12 13 13 13 12 12 13 14 13 13 11 10 9 10 11 11 11 12 14 15 16 17 18 18 19 18 18 18 15 15 15 13 12 11 10 9 9 9 10 9 10 9 8 8 11 10 8 8 9 8 8 8 8
12 12 13 13 13 12 12 13 14 13 13 12 11 10 10 11 11 11 10 12 14 15 15 18 19 19 19 19 18 18 17 16 13 11 11 11 10 9 9 10 8 8 8 8 8 8 8 9 7 7 7 7 8 9
12 12 12 13 13 12 12 13 14 14 14 13 12 11 10 11 11 11 10 12 13 13 14 15 17 19 20 19 18 17 17 15 12 12 12 11 13 10 9 10 9 7 8 8 8 8 7 7 7 7 6 7 7 7
12 13 13 13 13 13 12 13 14 14 14 13 12 11 11 11 11 10 13 14 14 14 13 15 19 18 19 19 19 18 17 16 15 15 13 14 15 12 11 10 11 9 9 9 8 9 8 8 7 7 7 7 7 7
12 13 13 13 13 13 13 13 14 14 14 13 12 11 11 10 10 12 14 12 13 13 13 15 18 14 15 14 17 16 17 16 15 15 14 12 14 13 12 9 12 10 10 10 9 9 8 8 8 7 7 6 6 6
12 13 13 13 13 13 13 13 14 14 14 13 12 11 10 10 10 11 14 14 12 13 14 14 17 16 16 16 15 16 16 15 15 15 15 14 14 12 10 13 13 12 11 11 11 9 8 8 8 8 7 7 7 7
12 12 13 13 13 13 13 13 14 14 14 13 12 11 10 9 13 14 13 13 12 13 13 15 15 16 19 17 16 16 16 15 15 14 14 14 10 7 9 13 13 13 13 13 12 11 11 10 9 8 8 7 6 6
12 12 13 13 13 13 13 13 14 14 14 12 10 11 15 15 13 14 12 12 12 13 13 14 17 15 17 13 15 15 15 15 13 14 14 11 9 11 13 13 13 13 13 13 12 12 11 11 11 10 8 7 6 6
12 12 13 13 13 13 13 13 14 13 12 10 14 16 14 14 14 15 16 15 14 14 13 13 13 14 13 13 14 13 13 13 12 14 13 10 10 12 13 13 14 13 14 14 13 13 12 11 11 10 10 8 7 7
12 12 12 13 13 13 14 15 14 13 13 13 12 15 16 16 17 17 17 15 15 15 14 14 17 15 13 14 12 11 13 14 13 14 12 11 12 13 13 14 14 14 15 13 11 12 12 12 12 11 11 10 9 7
12 12 13 13 13 13 14 15 15 14 14 14 14 17 18 17 16 18 14 14 14 16 17 18 17 16 15 14 12 13 13 12 11 10 10 11 12 13 14 14 13 14 14 12 11 12 12 11 12 11 11 11 10 9
13 13 13 13 14 13 13 14 14 14 12 15 18 11 18 19 18 19 16 16 16 16 18 16 16 15 15 14 14 13 13 12 14 13 11 13 13 14 15 15 15 13 14 13 13 13 13 12 12 12 12 12 11 10
13 13 14 15 15 14 13 13 14 12 13 18 20 13 21 21 19 19 19 17 16 18 17 15 17 17 16 15 14 15 15 15 14 13 13 13 14 15 15 15 15 11 13 12 12 12 13 14 14 12 12 12 12 11
13 14 14 14 13 14 13 13 12 12 16 19 20 21 21 20 16 14 16 18 20 21 17 19 19 17 15 15 15 15 14 13 14 13 13 13 13 14 15 14 16 15 13 12 13 15 14 12 13 13 13 12 12 11
13 13 14 13 13 13 12 11 13 16 19 21 22 22 22 21 14 16 15 15 21 21 20 20 17 16 17 15 15 15 14 13 14 14 13 12 13 14 15 15 15 15 14 14 14 14 15 14 13 13 12 12 12 11
13 13 13 13 13 12 12 13 17 20 20 22 21 21 22 17 19 18 15 19 21 20 19 18 18 17 15 15 15 15 14 15 13 13 10 11 13 15 16 15 15 15 15 15 14 13 14 14 14 12 12 12 11 11
13 13 13 12 11 10 17 18 18 20 22 22 22 23 20 16 15 17 20 21 20 19 18 18 18 16 15 15 16 16 15 14 13 13 11 11 14 14 13 14 15 14 14 11 11 11 10 12 15 15 14 11 11 11
14 15 14 14 12 13 18 21 20 21 22 23 23 22 19 17 17 19 20 20 20 19 18 18 18 16 15 15 16 16 16 15 15 15 12 11 10 11 13 14 13 11 11 11 10 10 9 10 12 14 13 13 12 12
14 14 14 13 12 13 18 21 21 21 20 22 18 15 14 17 18 18 18 21 20 20 19 18 18 17 16 16 16 16 15 15 14 13 12 12 12 13 13 14 10 9 9 8 8 8 8 7 8 13 13 13 12 11
14 15 15 13 16 19 19 20 21 20 21 22 17 17 17 18 19 20 20 21 20 19 19 18 17 16 16 16 16 16 15 15 15 13 13 14 13 13 13 13 12 10 9 8 8 7 7 9 9 10 13 12 10 10
15 15 17 18 18 16 15 22 22 20 20 22 20 17 20 20 20 19 17 19 20 20 19 18 17 17 16 16 16 15 15 15 14 14 14 13 12 11 11 10 11 12 9 9 10 9 9 9 10 10 11 12 11 9
16 17 19 21 18 16 22 22 23 23 23 17 19 21 19 21 19 20 19 20 19 19 18 18 17 16 16 17 15 16 16 15 13 13 13 13 13 11 10 10 11 12 10 10 10 8 8 9 10 11 11 11 10 10
15 13 14 9 19 22 21 22 23 22 18 16 19 19 14 14 18 19 19 18 16 16 17 18 18 17 17 16 16 16 15 14 13 13 13 12 11 11 11 11 10 10 10 10 9 9 9 9 10 10 11 11 10 11
11 17 13 21 22 22 22 23 22 19 17 17 19 14 15 15 16 18 18 16 15 18 17 17 17 17 16 15 15 15 14 14 14 13 13 13 12 12 11 11 10 9 9 9 9 9 9 9 9 11 10 10 10 10
13 19 22 22 22 23 21 21 21 20 18 16 15 15 16 13 14 16 16 16 17 18 18 18 17 17 16 15 15 15 14 14 13 13 13 13 12 12 11 11 10 10 10 10 10 10 10 10 11 10 10 10 10 10
20 22 22 23 22 23 24 23 21 17 15 14 14 16 18 17 16 18 18 17 18 18 17 17 16 16 16 16 15 15 14 14 14 13 13 13 12 11 11 10 10 10 9 10 10 10 10 10 10 10 10 10 10 9
20 22 23 22 23 24 23 22 15 14 14 14 15 16 17 19 19 18 16 17 18 17 17 17 17 16 16 16 16 16 16 15 14 14 13 13 12 12 12 11 10 10 10 10 9 10 10 10 10 10 10 10 10 9
21 23 23 24 24 23 21 22 16 14 13 14 13 14 17 17 17 16 16 16 18 19 19 18 18 18 18 16 15 15 15 15 14 15 14 13 13 12 12 12 12 11 11 10 10 9 9 10 10 10 9 9 9 9
25 25 24 25 24 19 17 19 18 14 14 14 13 15 16 17 15 16 17 19 19 19 19 18 17 17 17 16 15 15 14 13 13 13 14 13 13 12 12 12 12 11 11 11 11 10 10 10 10 10 10 9 9 9
25 25 25 21 18 18 16 15 16 17 15 14 17 17 17 17 17 17 17 18 19 18 17 17 16 15 15 14 13 12 11 10 11 12 13 12 12 12 12 12 12 12 11 11 11 11 10 10 10 10 10 10 10 10
25 23 23 20 18 17 15 15 17 16 15 16 17 19 20 19 17 17 17 18 18 18 16 16 15 14 14 12 10 10 10 10 9 10 10 11 11 11 11 11 12 12 12 12 11 11 10 10 10 10 10 10 9 9

GFSWCAN_925_temp_060.txt.gz
Temp
13 13 13 13 13 13 13 13 14 13 13 11 11 12 13 13 13 13 14 14 14 10 11 17 16 14 13 11 10 11 10 9 8 7 9 9 9 9 8 9 10 9 8 9 8 10 10 11 11 10 9 8 9 9
12 12 12 13 13 13 13 13 14 13 13 11 11 11 12 12 12 13 13 14 13 11 12 16 17 17 17 16 11 11 10 10 8 8 8 6 8 9 9 9 10 9 8 7 9 8 9 9 8 7 8 8 8 8
13 12 12 13 13 13 13 13 14 13 13 12 11 12 11 11 11 12 12 12 13 9 10 13 14 18 18 18 17 11 9 10 9 8 7 8 8 7 8 9 9 9 7 7 7 9 8 9 9 8 8 7 7 7
12 12 12 13 13 13 13 13 13 13 13 12 12 12 12 11 11 11 11 12 11 11 11 11 17 17 18 18 18 17 14 12 9 7 7 8 8 7 5 8 9 8 8 9 8 8 8 8 8 8 8 8 7 8
12 12 13 13 13 13 13 13 13 13 13 12 12 12 12 11 11 11 11 12 12 12 11 10 14 17 18 18 18 17 14 9 8 10 9 9 9 7 7 8 9 7 8 8 7 7 7 7 7 8 7 7 7 7
12 12 13 13 13 13 13 13 14 14 14 12 12 12 12 11 11 11 10 13 12 13 12 10 13 15 18 18 17 16 13 10 9 9 9 11 11 9 7 8 8 7 7 7 7 8 7 8 7 8 7 7 7 7
12 12 12 13 13 13 13 13 14 14 13 12 10 12 12 11 11 11 11 12 13 13 12 11 11 13 15 15 14 13 14 11 11 10 10 10 10 9 7 6 9 8 8 7 8 8 8 8 7 8 7 7 7 6
12 12 12 13 13 13 13 13 13 14 13 12 11 12 11 11 11 11 14 13 12 12 12 12 12 13 14 12 12 11 11 11 12 12 10 10 8 8 7 9 9 9 8 8 8 7 8 8 8 7 7 7 7 6
11 12 12 13 13 13 13 13 13 14 13 13 12 11 10 10 10 12 13 13 12 12 11 12 12 13 13 12 11 12 11 11 11 12 10 10 7 7 9 9 9 10 9 9 9 8 8 8 8 7 7 7 6 6
12 12 13 13 13 13 13 13 14 14 13 11 10 10 10 13 13 12 11 9 9 9 9 9 11 12 11 12 11 12 11 12 12 12 11 8 7 8 8 10 11 10 11 11 11 10 10 9 9 8 8 7 6 6
12 12 13 13 13 13 13 14 14 13 11 10 10 11 13 13 12 11 11 12 11 11 10 10 10 11 11 11 10 11 11 11 10 11 12 9 9 10 11 12 11 10 11 11 12 11 10 9 8 9 9 8 7 7
12 12 13 13 13 13 13 14 14 12 11 11 11 12 12 11 12 13 14 14 13 13 12 12 12 11 11 11 11 10 12 12 10 10 9 9 8 11 11 12 12 11 12 12 11 10 10 10 10 10 10 9 9 8
12 12 13 13 13 13 13 14 14 13 13 12 11 12 13 14 13 15 14 13 13 13 13 12 13 12 10 9 9 10 12 11 9 9 9 8 10 11 10 10 11 12 12 11 10 10 11 11 11 11 10 10 10 9
12 13 13 13 14 14 14 14 14 13 11 11 14 10 14 14 16 16 15 14 14 14 12 12 12 11 11 11 11 12 11 11 11 10 10 10 10 9 9 10 11 11 11 11 11 11 11 11 11 11 11 11 10 9
12 13 13 14 14 15 14 13 13 12 10 12 14 12 15 17 14 14 13 13 14 12 12 12 12 11 11 13 11 11 13 12 10 10 10 9 10 10 10 12 9 10 10 9 11 11 11 11 12 12 11 11 10 9
13 14 13 13 13 13 13 12 11 11 12 13 14 16 16 16 14 13 13 13 14 14 12 13 14 13 13 12 13 14 12 10 11 9 9 9 10 10 10 11 11 11 11 11 12 12 12 11 12 12 12 11 10 9
13 13 12 13 13 13 13 11 11 11 13 17 15 16 16 14 14 14 12 13 14 14 15 13 15 15 12 12 13 12 11 10 10 9 9 9 9 10 9 10 12 11 11 11 10 10 10 11 11 10 10 10 10 9
12 12 12 12 12 12 11 11 12 15 15 15 16 16 15 13 13 13 13 12 14 14 14 15 13 15 14 14 11 11 10 10 9 9 8 8 9 9 10 9 11 12 11 10 11 12 12 9 8 8 10 10 9 9
12 12 12 11 11 11 12 13 13 14 16 16 16 16 14 14 13 13 13 15 15 14 13 13 15 12 12 10 11 11 10 10 10 9 8 9 9 9 9 10 9 8 9 8 8 8 8 9 10 9 10 10 9 9
13 13 13 12 11 10 13 14 17 15 17 17 14 14 13 13 13 14 13 14 14 14 15 15 13 12 11 11 11 11 10 10 9 9 8 7 9 9 9 9 8 8 8 8 8 9 8 8 9 10 10 11 10 9
13 13 13 13 11 11 11 13 16 16 16 16 13 13 14 13 14 14 14 14 16 14 14 13 13 12 13 13 14 13 11 11 9 8 9 8 10 10 9 9 8 8 8 7 6 6 7 7 9 9 9 10 10 10
13 13 12 12 11 14 12 15 14 15 16 15 13 13 13 14 15 15 14 15 15 15 13 13 13 12 12 12 13 15 13 12 12 12 11 11 7 9 8 9 9 7 7 6 6 6 7 8 8 9 9 10 10 10
13 13 14 15 13 12 13 17 17 17 17 17 14 14 14 14 13 13 14 14 14 14 15 15 16 16 13 15 15 14 13 12 10 10 10 10 10 10 10 9 9 8 7 8 8 8 9 8 8 10 9 9 10 10
14 14 15 16 13 12 17 18 17 18 16 17 17 17 15 14 13 13 15 15 14 14 14 14 14 11 12 12 9 10 12 12 12 11 11 10 8 9 9 9 9 9 9 8 8 8 8 8 9 10 9 10 10 10
13 11 11 8 13 17 18 19 19 17 16 16 17 15 13 13 14 15 16 14 13 13 13 13 12 12 10 9 10 12 13 13 10 8 10 11 11 10 9 8 8 9 9 9 9 9 9 9 10 10 9 9 9 9
9 13 12 17 17 18 19 20 18 16 15 15 15 14 13 13 14 14 14 13 13 13 13 11 11 10 9 11 9 10 12 13 12 10 10 11 11 9 8 7 7 8 9 9 9 9 10 10 10 10 10 10 10 9
10 15 15 15 16 18 18 18 17 17 16 16 15 14 14 13 13 13 12 13 14 15 16 16 15 12 11 12 13 13 13 13 13 12 11 11 11 10 10 9 9 9 9 10 10 9 9 10 9 9 9 9 9 9
15 16 17 17 17 18 19 19 18 15 15 14 14 15 16 16 15 14 13 15 17 17 17 16 16 15 14 14 14 14 13 13 12 12 11 11 11 10 10 10 9 10 10 10 10 10 10 10 10 10 9 9 9 9
15 15 17 17 18 18 17 16 15 14 13 14 15 14 13 14 15 14 15 16 16 16 16 15 15 15 15 14 14 14 13 13 11 8 8 6 8 9 10 10 10 10 10 10 10 10 10 10 9 9 9 9 9 9
16 16 17 19 19 18 16 15 15 12 13 13 13 13 14 14 15 16 16 16 16 15 16 16 16 15 14 15 13 13 13 13 13 11 7 7 10 11 10 10 10 10 10 10 10 10 10 9 9 9 9 9 9 9
18 17 18 19 17 16 16 14 13 13 13 13 12 13 14 14 15 16 17 17 17 17 16 15 15 15 14 13 12 11 10 12 13 13 12 12 12 12 11 11 11 10 10 10 10 10 10 9 9 9 9 9 9 9
18 19 19 17 16 15 14 14 15 14 14 13 13 13 13 13 13 13 18 17 17 16 16 15 13 11 13 13 13 12 12 12 13 12 12 12 12 12 11 11 11 11 11 10 10 10 10 9 9 9 9 9 9 9
19 19 19 17 16 15 14 15 15 14 14 14 14 14 13 13 14 13 17 17 17 16 15 14 13 12 12 12 11 11 11 11 11 11 12 12 11 11 11 11 11 11 11 11 10 10 10 10 9 9 9 9 9 8

GFSWCAN_925_temp_063.txt.gz
Temp
13 13 13 13 13 13 12 14 14 14 13 13 14 12 12 13 14 14 13 13 13 9 9 15 15 13 12 9 10 10 10 9 6 6 5 8 9 9 7 9 10 8 7 4 8 8 8 9 10 10 8 7 9 9
12 12 12 13 13 12 12 13 14 14 14 13 13 12 12 12 13 14 13 13 13 10 11 15 15 16 16 14 9 8 9 8 7 6 6 7 8 9 8 4 10 8 6 5 7 7 8 8 7 9 9 8 8 8
12 12 12 12 13 12 12 13 14 14 14 13 13 13 12 11 12 13 12 12 12 8 9 11 13 17 17 17 17 10 8 8 8 6 5 5 4 6 8 9 10 9 7 5 6 8 8 9 8 8 9 8 8 8
12 12 12 12 13 12 12 12 14 14 14 13 13 13 12 12 12 12 12 11 11 9 9 10 15 16 16 17 17 17 13 10 8 6 6 6 5 6 4 6 5 6 8 9 8 7 7 8 7 7 8 8 8 8
12 12 12 12 12 12 12 12 14 14 14 13 13 13 12 12 12 12 12 12 11 11 9 9 12 16 17 17 16 16 12 8 7 8 9 8 9 6 5 7 8 7 7 7 6 7 7 7 8 8 7 8 8 7
12 12 12 12 12 12 12 12 14 14 14 14 13 13 12 11 11 12 10 13 12 11 10 10 11 12 15 16 14 12 12 10 10 9 8 10 11 10 8 8 7 6 6 6 7 7 6 7 7 8 7 8 8 7
11 11 11 12 12 12 13 13 13 14 13 13 13 13 12 11 11 11 10 12 12 13 11 10 9 12 14 14 12 12 13 11 11 9 9 10 10 10 9 5 9 7 8 6 6 7 7 7 7 8 7 7 7 7
11 11 11 12 12 12 12 13 13 14 14 13 13 12 11 10 10 11 13 13 12 11 11 10 10 11 13 11 12 10 10 10 10 10 10 10 9 9 9 8 9 9 8 7 7 6 7 8 7 6 7 7 7 6
10 11 11 12 12 12 13 13 13 13 14 13 13 11 10 9 10 12 12 13 12 12 9 9 10 11 11 10 10 10 11 11 11 10 11 10 8 9 9 9 9 9 8 9 8 7 7 6 6 7 7 7 6 6
10 11 12 12 12 12 13 12 13 13 13 12 11 10 10 11 12 12 11 9 8 8 8 9 8 10 11 10 10 11 11 11 11 10 10 9 8 8 8 8 9 9 8 8 9 9 8 8 7 7 8 7 7 6
10 11 12 12 12 12 12 13 13 12 11 11 10 10 11 11 12 9 11 11 11 11 8 9 9 10 10 11 11 10 11 11 9 9 10 8 8 10 11 10 9 9 9 9 10 11 9 9 8 8 7 8 7 7
11 11 12 12 12 12 13 13 12 10 10 11 11 10 10 10 10 12 13 12 12 12 11 11 11 9 10 10 11 10 11 11 11 9 9 6 7 9 10 11 11 10 9 10 11 10 11 9 9 9 8 9 8 9
11 12 12 12 12 12 13 13 13 12 11 11 10 11 11 11 12 13 14 12 13 12 12 11 12 10 10 8 10 10 12 11 8 8 6 6 8 9 9 9 10 11 11 11 10 10 11 10 10 10 9 10 9 9
11 12 12 13 13 13 13 13 13 13 12 10 12 11 12 13 13 15 14 14 13 12 11 11 11 11 9 10 10 12 10 10 11 9 8 9 9 9 9 9 10 10 10 10 10 10 10 10 10 11 10 10 9 9
12 12 13 13 14 14 14 13 13 12 11 11 12 11 13 14 13 13 12 12 12 11 11 10 12 10 10 12 10 11 11 11 9 8 9 8 9 8 8 8 9 9 9 9 10 10 10 11 10 10 10 11 10 9
12 13 12 12 13 13 13 12 11 11 10 10 11 13 13 14 14 13 12 12 11 11 10 11 12 13 12 11 12 12 12 10 10 8 8 8 8 8 8 8 8 9 9 9 9 10 10 9 9 10 10 10 9 9
12 12 12 12 12 12 11 10 10 10 11 13 13 12 13 14 14 13 11 12 11 12 13 12 15 15 10 12 12 10 10 10 8 8 8 8 8 8 9 10 10 9 9 9 9 10 9 9 11 9 7 8 9 9
12 12 11 12 12 11 10 10 10 13 13 12 13 14 15 13 13 12 11 11 13 13 13 15 12 14 13 13 11 10 9 8 8 7 7 7 7 8 9 8 8 8 7 7 7 8 8 7 7 8 9 9 8 8
11 11 11 11 11 11 10 11 10 12 13 13 12 12 13 13 12 12 12 12 12 12 13 13 14 12 11 9 10 10 9 10 9 7 6 8 8 8 7 8 8 9 8 8 8 6 7 7 7 8 8 8 8 8
12 13 13 12 10 9 11 11 13 12 14 15 13 13 12 12 11 12 12 12 12 12 14 15 14 12 10 10 9 11 9 8 7 8 7 6 7 8 7 7 7 7 7 7 7 7 7 7 8 8 8 8 8 8
12 12 12 12 9 8 9 11 12 13 13 14 12 12 13 12 13 13 12 10 13 13 13 13 14 12 11 11 11 11 9 9 7 7 7 6 7 8 9 8 7 7 6 6 5 5 6 6 8 9 9 9 8 9
12 11 11 11 10 10 9 12 12 12 14 13 12 12 13 13 13 13 11 13 13 13 12 12 12 11 11 11 11 12 11 10 9 9 9 9 8 6 6 7 7 7 8 6 6 6 6 7 7 7 8 8 9 9
12 11 12 11 11 10 11 13 15 15 16 15 13 13 14 13 13 12 13 13 14 13 13 14 13 13 11 11 12 10 10 10 8 8 8 8 8 8 8 8 9 8 6 7 7 6 7 7 7 8 8 8 8 8
13 12 12 13 11 11 14 15 14 15 15 14 14 16 14 13 12 13 14 13 13 11 12 12 12 10 9 9 7 8 10 10 9 9 9 9 6 6 8 8 8 8 7 7 7 7 7 7 8 8 8 8 8 8
11 11 10 8 11 14 16 17 17 15 15 15 15 14 13 11 13 14 14 13 12 11 10 10 9 9 8 6 7 9 10 12 9 7 8 9 8 8 7 8 8 8 8 8 8 8 8 8 8 9 8 8 8 8
9 11 11 14 15 15 16 18 18 16 14 15 15 12 12 12 13 14 13 12 11 11 11 9 9 7 7 9 7 8 10 11 11 9 8 9 10 9 6 5 5 8 8 9 9 9 9 9 9 9 8 8 8 8
9 13 12 11 13 15 16 15 15 15 16 16 14 13 13 13 13 12 12 12 11 13 13 13 13 11 9 10 11 12 12 12 12 11 11 10 10 10 10 8 8 8 9 9 10 10 9 9 9 9 9 9 9 8
12 13 14 15 15 14 17 17 16 16 15 13 13 15 15 15 15 13 12 14 15 15 14 14 14 14 13 13 13 12 11 12 11 11 10 10 10 10 9 9 9 9 9 10 10 10 9 9 9 9 9 9 8 8
12 12 14 15 15 15 16 16 14 13 12 13 14 14 14 12 13 12 14 15 15 14 13 12 12 13 13 12 12 12 12 11 10 7 7 5 7 9 9 9 9 9 10 10 9 9 9 9 9 9 9 9 8 8
13 12 14 16 17 17 15 13 13 12 12 12 12 12 12 13 14 15 14 14 13 14 14 14 14 13 12 11 11 10 11 11 11 10 6 5 8 10 10 10 10 10 10 9 9 9 9 9 9 9 9 9 9 8
13 14 16 16 15 14 13 12 12 12 12 12 11 12 12 12 14 14 15 15 16 15 13 12 12 13 12 11 10 9 9 11 11 12 12 12 11 11 10 10 10 10 9 9 9 9 9 9 9 9 9 9 8 8
14 15 16 15 14 13 13 13 13 13 12 13 12 11 11 12 13 11 15 15 14 14 14 14 13 12 13 13 13 13 13 13 12 12 12 11 11 11 11 11 10 10 10 10 9 9 9 9 9 9 8 9 8 8
16 16 15 14 14 14 12 13 13 13 12 12 12 12 12 12 13 12 14 15 16 16 15 14 14 13 14 13 13 13 13 12 12 12 12 12 11 11 11 11 11 10 10 10 9 9 9 9 9 9 8 8 8 8

GFSWCAN_925_temp_069.txt.gz
Temp
11 11 12 12 12 12 13 13 13 13 14 13 13 13 13 13 13 14 13 13 13 14 15 14 15 14 13 14 15 13 14 13 13 12 11 10 10 10 9 9 11 13 13 12 11 12 13 13 12 13 13 11 11 11
11 11 12 12 12 12 13 13 13 13 14 13 13 13 13 13 13 13 13 12 12 13 15 12 14 15 16 16 15 12 14 13 13 11 9 10 10 10 10 12 10 11 11 11 12 13 13 12 13 13 12 12 11 11
10 10 11 12 12 12 13 13 13 13 13 13 13 13 12 13 12 13 12 12 11 13 15 14 16 14 15 14 16 16 13 13 11 12 12 10 10 11 11 11 11 11 10 10 10 13 12 12 11 11 11 11 11 11
10 10 10 11 12 12 12 13 13 13 13 13 13 13 12 12 12 12 12 11 11 11 14 16 13 14 14 14 14 15 13 10 11 12 12 12 13 10 11 11 11 12 10 11 11 12 11 11 12 12 11 11 11 11
10 10 10 11 11 11 12 13 12 13 13 13 13 13 12 12 11 11 12 11 11 12 14 15 13 13 13 13 14 13 13 11 10 12 13 12 11 11 10 10 10 11 11 11 12 13 13 13 12 11 11 11 11 11
10 10 10 11 11 11 12 12 12 13 13 13 13 13 12 12 11 11 13 11 11 11 13 14 13 14 13 12 13 13 12 12 12 11 10 10 11 10 10 10 13 12 12 13 14 12 13 13 12 11 12 12 11 11
10 10 10 10 10 11 12 12 12 12 13 13 13 13 12 12 11 12 14 12 11 11 14 14 15 14 12 12 12 13 12 11 11 11 11 12 10 9 9 10 12 12 12 11 11 11 11 11 13 12 11 11 10 10
10 10 10 10 10 10 11 12 12 12 12 13 13 12 11 11 11 11 11 11 11 11 13 13 15 14 13 14 13 11 11 11 11 12 11 10 8 8 8 11 11 12 12 11 11 11 13 12 12 11 11 10 11 11
9 9 10 10 9 11 11 12 12 12 11 12 12 11 10 11 11 11 12 12 11 11 13 12 12 16 13 12 12 12 12 12 11 12 11 10 9 9 10 11 12 12 12 13 12 12 11 11 12 12 11 11 11 12
9 10 9 9 10 11 11 12 12 11 10 11 10 9 13 10 11 11 11 12 12 12 11 11 11 12 13 13 13 13 12 13 13 11 10 10 10 12 12 9 10 11 11 12 12 12 12 12 13 12 12 12 12 12
9 9 9 10 11 11 11 12 11 9 9 9 10 12 10 10 11 12 13 13 12 12 11 11 11 14 11 14 14 12 13 13 12 12 11 10 10 13 12 12 12 12 11 12 14 15 14 14 14 12 13 12 11 11
9 10 11 11 11 12 12 11 10 8 9 9 10 10 10 11 12 13 14 13 13 14 12 13 12 12 12 11 13 11 13 12 13 12 11 9 12 13 12 13 13 13 12 13 12 13 13 12 13 13 12 12 12 11
10 10 11 11 12 11 11 11 10 10 9 10 10 12 12 12 12 14 14 14 14 15 14 13 14 12 11 11 12 12 13 13 12 11 9 11 14 13 12 12 13 13 12 12 13 12 12 12 12 12 12 12 11 10
10 11 11 11 12 12 11 11 11 11 10 12 13 11 14 13 13 16 16 17 16 15 14 14 13 13 12 13 12 13 12 12 13 12 11 14 14 13 12 12 12 13 12 12 12 12 12 12 12 11 11 11 11 10
11 11 12 12 12 13 11 11 11 11 9 13 12 11 14 16 16 16 15 14 14 14 13 13 13 13 13 13 12 12 12 12 13 14 14 14 13 12 12 12 12 12 12 12 11 11 11 11 11 11 11 11 10 9
11 11 11 11 12 12 11 10 10 10 9 11 12 14 16 15 17 15 15 16 13 13 13 14 14 14 14 14 13 13 14 14 15 14 14 12 12 11 11 11 11 11 11 11 10 10 9 8 8 9 9 10 10 9
10 10 10 11 11 10 9 8 9 10 12 13 13 14 15 15 15 16 16 16 13 16 16 16 15 15 14 13 13 14 14 16 15 14 12 11 11 11 10 10 10 10 10 9 9 9 8 8 7 8 8 8 9 9
10 10 10 10 10 10 9 8 10 12 13 13 15 17 15 15 16 15 15 13 14 15 14 16 14 15 11 10 14 15 15 13 13 12 11 10 10 9 9 10 9 9 9 8 8 8 7 6 5 6 5 6 8 9
10 10 10 10 10 10 10 10 9 13 14 15 15 15 15 15 14 14 14 14 13 12 13 14 14 12 10 12 14 16 14 14 14 11 10 9 9 9 9 9 8 8 8 8 8 8 7 7 6 5 5 6 8 10
11 11 11 11 10 9 11 12 10 12 15 16 14 15 15 15 14 14 15 13 12 12 14 13 12 11 11 15 15 15 15 13 14 14 12 11 9 9 9 8 8 7 7 7 7 7 7 8 7 5 5 7 9 9
10 10 10 10 9 8 10 12 13 14 16 15 15 15 16 14 15 16 15 12 12 13 12 11 11 13 14 12 12 12 12 12 13 13 12 12 10 9 9 8 8 8 9 8 8 7 6 6 6 6 6 7 7 8
10 10 9 8 9 9 9 10 13 14 14 16 14 14 15 15 15 14 13 14 14 12 12 12 14 14 13 13 12 11 10 10 9 9 9 10 11 10 9 9 10 9 8 7 8 7 5 5 6 6 6 6 6 8
10 10 9 10 11 11 12 11 14 16 16 17 15 16 15 15 14 13 15 15 13 12 12 12 11 11 11 10 9 9 9 10 11 11 10 9 8 9 9 9 9 8 8 7 7 6 4 5 6 6 7 7 8 8
10 10 12 13 12 12 14 15 15 16 16 15 16 17 15 14 14 15 16 15 14 13 13 11 10 12 11 11 12 11 10 10 10 9 9 10 10 8 8 8 8 7 7 8 7 7 7 7 7 7 8 9 9 9
10 10 10 9 11 13 15 17 17 16 18 17 17 16 15 14 15 15 15 15 13 13 10 11 12 14 13 12 11 10 8 10 11 11 9 9 9 9 9 9 8 8 8 10 9 9 7 7 8 8 8 8 9 9
9 12 11 14 15 15 17 17 18 18 17 17 16 14 14 14 15 14 14 13 12 11 10 13 14 13 13 13 12 12 11 9 10 11 9 9 9 10 10 10 11 9 8 8 9 9 9 9 9 9 9 8 8 9
9 14 14 13 14 15 17 17 17 16 17 17 16 14 15 15 14 14 13 13 12 13 12 12 13 14 13 11 10 10 9 9 10 10 9 8 8 8 9 10 10 8 8 9 9 9 9 9 9 9 9 9 8 8
13 14 15 15 15 16 17 18 18 18 17 14 15 14 14 15 16 16 15 13 13 12 12 11 11 13 13 12 11 10 9 9 9 8 8 8 8 8 8 8 9 9 8 8 9 9 9 9 9 9 9 9 8 8
13 14 14 15 16 16 16 17 18 16 14 15 16 15 15 15 15 15 13 13 13 12 13 12 11 10 10 10 10 10 9 10 11 11 11 11 11 9 8 8 8 8 8 8 9 9 8 9 9 8 8 8 8 8
14 14 15 16 16 18 18 16 16 14 13 14 14 14 15 15 14 12 12 12 13 14 15 14 12 12 12 12 11 10 9 10 12 12 12 12 11 10 9 9 9 8 9 9 9 8 8 9 9 9 8 8 8 8
14 14 15 16 17 16 16 14 13 13 14 14 14 15 16 15 13 12 13 13 14 13 13 13 12 12 12 12 12 12 11 10 9 10 11 11 10 10 9 9 9 9 9 9 9 9 9 9 9 9 9 9 9 9
15 15 16 17 16 14 14 15 16 15 15 15 15 15 15 15 16 15 13 12 13 14 14 14 14 13 12 12 12 12 12 12 10 10 11 11 11 10 10 9 9 9 9 9 9 9 9 9 9 9 9 9 8 8
16 16 16 17 15 15 14 15 15 15 15 15 15 15 16 17 17 15 13 12 13 15 15 13 13 13 13 13 12 12 12 12 12 11 12 11 11 11 10 10 10 9 9 9 10 9 9 9 9 9 9 9 9 8

GFSWCAN_925_temp_072.txt.gz
Temp
12 11 11 11 12 12 12 12 13 13 13 13 13 13 14 14 14 14 15 14 16 20 20 19 20 19 19 20 20 18 18 18 19 17 17 14 15 13 13 14 16 17 16 16 18 17 16 18 17 17 17 16 17 16
11 11 11 11 12 12 12 12 12 12 13 13 13 13 13 13 13 14 17 13 13 18 20 17 19 18 19 19 20 18 19 18 19 18 16 15 14 15 15 16 16 14 16 15 17 17 17 17 18 16 17 16 16 16
10 10 10 10 11 12 11 12 13 12 13 13 13 13 13 13 13 13 15 13 15 19 20 19 20 18 17 18 19 20 19 18 17 18 18 18 15 17 15 15 16 16 16 13 14 18 17 17 16 16 16 16 16 16
10 10 10 10 11 11 11 12 12 12 13 13 13 13 13 13 13 13 14 13 15 18 20 20 17 18 17 17 18 19 18 17 18 18 19 18 17 17 17 17 15 17 16 15 15 16 16 16 17 16 15 15 15 15
10 10 10 10 11 11 11 12 12 12 13 13 13 13 13 13 12 12 12 13 13 17 20 21 18 17 17 17 17 17 18 16 15 16 16 16 17 16 17 16 16 17 16 14 15 18 17 18 17 16 15 15 15 15
10 10 10 10 10 10 11 12 12 12 13 13 13 13 13 12 12 13 17 13 13 14 18 20 19 18 17 17 18 17 18 18 18 15 16 12 15 14 13 12 16 18 18 18 18 18 17 17 16 15 15 15 15 15
9 10 10 10 10 10 11 11 11 12 12 13 13 13 13 12 11 15 16 14 12 13 18 19 20 18 16 17 18 18 17 16 17 14 14 13 12 11 10 11 16 17 17 17 17 16 15 16 16 15 15 15 14 14
10 10 10 10 10 10 10 11 12 12 12 13 13 13 12 12 12 14 13 12 11 15 17 18 20 19 17 19 18 17 17 16 16 16 13 13 10 9 10 13 15 14 15 16 16 16 17 17 16 15 15 14 15 15
9 10 9 9 10 10 10 11 12 12 11 13 12 12 10 12 16 14 12 12 12 15 17 17 19 20 18 18 18 15 17 14 15 15 14 13 11 10 13 16 14 14 14 15 16 16 16 16 16 15 15 15 15 15
9 9 9 9 9 10 11 11 11 11 12 12 11 13 17 14 12 12 13 15 16 17 17 16 17 18 18 18 17 17 16 16 15 14 12 12 11 16 17 16 13 12 15 15 15 15 15 15 16 16 16 16 15 15
9 9 9 9 10 10 11 11 11 11 10 10 15 16 12 11 13 15 15 16 14 15 17 16 16 19 17 17 16 16 16 16 15 15 13 11 12 17 17 15 14 15 16 15 14 15 17 17 17 16 17 16 15 15
9 9 9 10 10 11 11 12 11 9 11 12 12 12 12 15 15 14 15 15 14 18 18 18 18 16 16 16 16 15 15 15 15 16 14 11 15 17 16 16 16 16 16 16 16 16 16 16 16 16 16 16 16 15
10 10 10 11 11 11 11 12 11 11 10 10 13 15 16 16 13 15 16 17 18 20 19 16 17 16 13 15 15 15 15 15 16 15 12 13 17 17 17 16 16 16 16 16 16 16 15 15 15 15 15 15 15 15
10 10 11 11 11 11 11 11 11 10 10 15 16 12 15 16 17 20 20 20 20 21 20 18 16 15 15 16 16 15 16 16 14 13 13 18 17 17 16 16 15 16 16 16 15 14 14 15 14 14 14 14 14 14
10 11 11 11 12 12 11 11 11 9 12 16 16 14 18 20 21 21 20 20 20 20 18 17 18 17 16 16 16 16 15 15 16 16 19 18 16 16 15 15 15 15 15 15 14 14 14 13 13 13 13 13 13 13
10 11 10 11 12 12 11 9 9 10 13 15 16 17 20 20 22 21 21 19 20 19 18 18 18 17 17 17 15 14 16 16 19 19 18 16 15 15 14 14 14 14 14 14 13 12 12 12 11 10 9 9 12 12
11 10 10 10 11 10 9 9 11 14 16 16 18 19 20 20 21 21 21 21 19 18 18 18 16 17 16 13 12 15 16 18 19 18 16 14 14 14 14 13 13 13 13 12 12 10 11 11 10 10 10 9 9 10
9 9 9 10 9 8 9 9 13 14 15 18 18 21 21 21 20 21 21 18 18 18 18 17 18 16 13 11 12 17 19 19 17 16 16 14 14 13 13 13 12 12 12 11 11 11 10 10 9 8 6 8 9 8
9 9 9 9 9 10 14 13 12 16 18 19 20 21 20 21 20 19 19 19 18 16 16 12 12 11 10 10 14 18 19 18 16 16 15 13 13 12 12 12 12 12 11 11 11 11 11 9 7 5 5 6 8 6
10 11 11 11 9 12 14 15 13 14 17 20 20 20 20 20 20 20 20 19 17 14 12 13 12 12 12 15 18 18 19 18 18 16 15 15 13 12 12 12 12 12 12 12 12 9 11 9 8 6 6 7 8 9
10 9 9 9 10 11 14 16 17 17 19 20 21 20 20 20 18 20 19 15 15 16 13 12 13 16 16 16 16 15 16 17 17 17 16 15 14 13 13 12 12 13 13 12 12 8 9 8 7 7 7 8 9 10
11 10 9 9 11 12 13 15 17 18 18 20 20 20 20 19 19 18 15 17 17 12 12 13 15 16 16 16 14 14 14 13 13 13 12 12 14 14 13 13 13 13 12 11 8 6 6 6 8 8 9 9 10 10
10 9 10 10 12 12 14 15 17 19 19 20 19 19 19 18 18 18 17 18 16 14 14 15 14 15 15 13 13 13 13 14 14 14 13 13 13 13 13 12 12 12 12 10 8 7 8 7 9 10 10 11 11 11
9 11 13 14 13 14 16 16 18 19 20 19 19 20 19 17 17 16 16 16 17 17 13 11 11 16 15 14 16 14 14 14 13 13 13 13 13 12 12 12 12 11 12 10 9 9 9 9 9 11 12 12 12 12
11 12 12 9 13 14 16 19 19 20 20 21 20 19 17 18 16 16 16 15 15 17 14 12 16 18 17 16 15 13 13 14 14 13 13 13 13 12 12 12 12 12 12 12 12 12 10 10 11 11 11 11 11 11
10 15 13 17 18 17 20 19 20 20 20 21 20 18 18 17 16 16 16 15 14 15 14 17 18 17 17 16 16 15 13 13 13 13 12 13 13 13 13 13 13 12 12 12 12 12 12 11 11 11 11 10 9 10
11 17 17 18 18 19 19 21 21 20 20 20 19 16 14 13 16 18 17 17 16 16 16 17 17 17 17 16 14 14 13 13 13 13 12 12 12 12 13 13 12 11 11 12 12 12 11 11 11 11 11 10 10 10
17 17 17 19 18 20 19 20 20 21 21 19 18 18 17 15 17 19 19 17 17 16 17 16 17 16 16 15 14 13 13 12 12 12 11 11 11 11 11 11 10 10 11 11 11 11 11 11 11 11 11 11 10 10
16 18 18 18 19 19 20 20 21 21 18 19 19 19 18 18 19 19 17 17 17 17 17 16 16 16 15 14 14 14 14 13 13 13 13 13 12 12 11 11 11 11 11 10 9 10 10 10 10 10 10 10 10 10
18 19 18 19 19 20 21 22 20 19 18 18 19 19 19 19 18 17 17 17 18 18 18 17 16 16 16 15 15 14 14 14 14 14 15 14 13 12 12 11 11 11 11 11 11 10 9 10 10 10 11 11 11 11
19 18 18 19 20 21 21 20 18 17 18 19 19 19 20 19 18 17 17 18 18 18 18 18 17 17 17 16 16 15 15 14 14 13 13 13 13 12 12 11 11 11 11 11 11 11 11 11 11 11 11 11 10 11
19 18 19 19 20 19 18 19 20 19 18 17 19 19 19 19 19 19 17 17 17 18 18 18 18 18 17 17 16 16 15 15 14 13 12 13 13 12 12 12 11 11 11 11 11 11 11 11 11 11 11 11 11 11
19 20 20 20 20 19 18 18 19 18 18 18 19 19 20 20 19 20 15 16 18 18 18 16 16 17 16 16 16 15 14 15 14 13 12 12 12 12 12 12 12 12 11 12 12 12 11 11 11 11 11 11 10 10

GFSWCAN_925_temp_075.txt.gz
Temp
11 11 11 11 11 11 11 12 12 13 13 14 13 14 14 14 15 16 19 17 19 24 24 23 23 22 22 23 23 21 22 22 22 21 20 18 17 18 17 18 20 21 19 19 21 22 20 22 21 21 20 20 20 20
11 11 11 10 11 11 11 11 12 13 13 14 14 14 14 14 15 16 20 17 17 21 23 22 22 22 22 22 23 22 22 22 23 21 20 20 17 20 18 18 20 18 20 17 20 20 20 21 21 20 21 20 20 20
11 10 10 10 11 10 11 11 12 13 13 13 14 14 14 14 14 15 18 17 19 22 23 23 23 21 21 21 22 23 23 22 21 21 23 22 19 20 18 19 20 20 20 17 19 21 20 20 20 20 20 20 19 19
11 10 10 10 10 10 11 11 12 12 13 13 13 14 13 14 14 14 18 18 18 22 23 23 21 21 21 21 21 22 22 21 21 22 22 20 19 21 20 20 19 20 20 19 19 20 20 20 20 19 19 19 19 18
8 10 10 10 10 10 10 11 12 12 12 13 13 14 13 13 14 14 16 17 17 19 23 24 22 22 21 21 20 21 21 21 21 20 20 19 19 19 20 20 19 21 20 18 17 20 20 20 20 20 19 18 18 18
8 10 10 10 10 10 10 10 12 12 13 13 13 13 13 13 13 15 20 18 17 17 21 23 22 21 21 20 21 21 21 20 19 18 19 17 18 18 16 15 19 20 20 20 20 21 21 21 20 19 19 18 18 17
10 10 10 10 10 10 10 10 11 12 13 13 13 13 13 13 13 17 17 16 15 16 21 23 23 22 20 21 22 22 20 20 20 17 17 18 15 16 12 13 18 19 20 18 20 19 19 19 18 19 18 18 16 17
10 10 10 10 10 10 9 10 10 11 12 13 13 13 13 13 14 16 15 14 14 18 21 22 23 22 21 21 20 22 19 18 18 19 17 15 14 14 12 16 18 17 18 17 18 19 19 20 19 18 17 17 17 17
9 9 9 9 9 9 9 10 10 12 12 13 13 12 11 13 18 16 14 14 14 16 20 22 22 19 22 22 21 20 20 16 18 16 16 16 15 13 15 18 18 18 17 16 16 16 19 19 19 18 18 18 17 18
8 8 9 9 9 9 9 9 10 12 12 12 11 15 19 16 14 14 15 16 16 18 20 21 23 21 22 22 19 17 17 18 16 17 17 15 14 17 18 19 19 17 16 15 14 14 16 17 18 18 18 18 18 18
9 9 9 9 9 10 10 11 12 12 11 12 17 19 15 13 16 17 16 16 17 19 22 22 22 21 22 19 18 19 18 19 17 17 17 15 14 19 20 19 18 17 16 17 18 18 18 17 18 18 18 18 17 17
9 9 9 10 10 10 10 11 10 10 15 14 14 15 16 18 17 16 17 17 17 21 22 22 21 22 20 21 18 19 18 19 17 18 16 13 17 19 19 19 19 18 17 18 18 18 18 17 18 18 18 18 17 17
10 10 10 10 11 11 11 11 11 11 12 14 16 18 18 17 15 16 18 19 21 22 22 21 20 20 19 20 18 18 18 18 19 17 14 16 19 19 19 19 19 18 18 18 17 17 17 16 16 16 16 16 17 16
10 11 11 11 11 11 12 12 12 11 12 18 18 14 18 18 20 22 22 21 23 24 23 20 19 18 19 18 18 17 17 18 16 15 15 20 18 19 19 19 18 18 18 18 18 17 17 16 16 15 15 15 15 16
10 11 11 11 12 12 11 11 12 11 16 18 19 15 20 23 24 23 23 23 23 24 22 19 17 17 17 16 18 16 17 16 17 18 19 15 17 18 18 18 18 18 17 17 16 15 15 15 15 15 15 14 14 14
10 10 10 11 12 12 11 10 10 13 16 18 19 20 23 23 24 25 24 24 25 24 21 18 18 17 17 17 16 14 15 16 19 19 20 19 17 17 16 16 17 17 16 16 16 16 15 15 15 14 14 13 12 11
10 9 10 11 11 10 9 11 14 16 18 19 21 23 23 23 23 24 25 25 24 22 19 17 17 18 17 14 12 13 15 18 20 21 18 17 16 15 16 16 15 15 15 15 14 14 14 14 12 13 13 12 11 11
9 9 9 10 10 10 12 12 16 18 18 20 21 23 24 24 23 24 24 22 21 20 19 18 18 13 11 10 10 13 17 19 20 19 18 16 15 15 16 15 14 14 14 14 14 13 13 12 12 12 11 10 9 8
9 9 9 10 9 11 17 16 16 18 20 22 23 23 23 24 24 24 24 22 21 20 19 17 12 11 11 13 15 17 19 20 19 18 17 15 15 15 14 15 15 14 13 13 14 14 13 11 10 9 7 6 7 7
10 11 11 10 9 14 17 18 17 17 19 23 23 23 23 23 24 24 23 21 18 18 15 13 13 15 17 18 18 18 19 20 20 17 17 16 16 14 14 14 15 15 16 15 13 11 12 10 9 7 6 6 6 8
11 11 10 10 10 13 17 19 19 20 21 22 24 24 23 22 22 20 20 20 18 16 16 15 17 19 19 18 18 19 18 19 19 19 18 19 17 16 16 15 15 16 16 15 13 11 10 9 9 7 6 7 7 8
12 11 13 12 14 15 16 18 19 20 20 22 23 23 23 21 20 19 21 18 17 18 17 17 16 16 16 16 17 17 16 16 15 15 15 15 17 17 16 16 16 15 14 13 11 11 10 8 9 9 10 9 10 11
11 11 14 14 14 14 15 19 19 21 20 21 22 20 19 19 20 21 18 17 17 18 17 17 16 16 16 16 16 16 16 16 17 16 16 16 15 15 15 15 15 14 13 13 12 11 11 10 11 11 12 12 11 12
11 14 15 16 15 15 19 17 19 21 22 21 20 21 20 20 21 20 18 16 18 18 16 13 14 16 17 16 18 17 16 16 16 16 16 16 16 15 15 15 15 14 13 13 12 11 11 12 11 13 13 12 13 12
13 13 14 11 17 16 18 20 21 21 20 20 21 20 18 20 19 18 18 18 16 17 17 15 13 17 18 20 18 17 15 17 17 16 16 16 15 15 15 15 14 14 14 14 13 13 13 12 12 13 13 12 12 12
12 16 13 19 20 19 22 21 21 21 22 22 21 20 19 15 15 17 18 19 17 18 18 18 18 20 20 19 18 17 16 16 16 16 15 15 16 16 16 16 15 14 14 14 14 13 13 13 13 13 12 11 11 12
12 18 19 21 21 22 22 23 23 23 22 21 20 19 19 17 18 20 21 20 20 19 19 20 20 20 19 18 17 16 16 16 16 16 15 15 15 15 15 16 15 14 14 14 13 13 13 13 12 12 12 12 12 12
18 20 20 21 21 22 21 21 22 22 23 22 22 19 19 20 18 20 21 20 20 19 20 20 20 19 19 17 17 16 16 15 14 14 14 14 14 14 14 14 13 11 12 12 11 13 13 13 13 13 13 12 12 12
19 21 21 20 21 22 22 22 23 24 22 21 20 19 20 21 22 22 20 20 20 20 20 19 19 18 17 17 17 16 16 16 15 15 15 16 15 14 14 13 12 13 13 12 10 11 10 11 12 12 12 12 12 12
20 22 21 21 21 21 23 24 24 24 23 23 22 21 22 23 22 20 20 20 20 20 20 19 19 19 18 18 18 17 17 17 17 17 17 17 16 15 14 14 14 14 13 13 13 11 10 10 11 11 12 12 12 12
22 22 21 22 22 23 24 25 24 23 22 22 22 21 20 22 21 20 20 20 20 20 20 20 19 19 19 19 18 17 18 17 16 16 16 16 15 14 14 14 14 14 13 13 13 14 14 13 13 13 13 12 12 11
21 21 21 21 23 24 22 23 22 20 20 20 20 22 22 22 22 21 20 20 20 21 20 20 20 20 19 19 19 18 17 18 16 16 15 15 15 14 14 14 14 14 13 13 13 14 13 13 13 13 13 12 12 12
22 23 22 23 23 23 23 21 22 20 20 20 21 23 23 22 20 21 20 20 20 20 21 20 19 19 19 18 19 18 17 17 16 15 14 14 14 14 14 14 14 14 13 14 14 14 13 13 13 13 13 12 12 12

GFSWCAN_925_temp_078.txt.gz
Temp
11 11 11 11 11 11 11 11 12 13 13 14 14 14 15 15 16 16 20 19 20 24 26 25 25 24 24 25 24 23 23 23 24 22 22 19 19 20 19 20 21 22 21 21 22 22 21 24 23 22 21 22 23 22
10 11 11 10 11 11 11 11 11 12 13 13 14 14 14 15 15 16 19 20 19 22 24 24 24 24 24 24 24 24 23 23 24 23 22 21 19 21 20 19 22 19 21 19 21 20 21 22 22 22 22 21 21 21
9 11 11 10 10 10 11 11 11 12 13 13 13 14 14 14 15 15 17 20 21 23 25 25 24 24 23 24 24 23 23 23 23 22 23 23 20 22 20 21 21 22 22 20 20 21 21 21 22 22 21 21 21 21
8 8 10 10 10 10 11 11 11 12 13 13 13 14 14 14 15 15 16 20 20 23 24 24 24 24 23 24 23 23 24 22 23 23 23 22 21 22 21 21 20 21 22 20 20 21 21 21 21 21 21 21 21 21
9 8 9 10 10 10 10 11 11 12 13 13 13 14 14 14 14 15 15 19 20 20 21 24 24 24 23 23 23 22 23 23 23 21 21 20 21 20 21 20 19 22 20 19 18 21 21 21 22 21 20 20 20 19
10 10 9 10 10 10 10 10 11 12 13 13 13 14 14 14 14 14 21 19 20 20 21 23 24 24 23 23 22 22 23 22 21 21 20 20 21 19 19 18 20 21 20 19 19 19 19 22 22 22 21 20 19 19
10 10 10 10 10 10 10 10 11 12 13 13 13 13 14 14 14 17 17 16 17 17 21 23 24 24 23 22 23 23 23 22 21 20 19 21 17 18 16 15 20 20 20 20 19 20 18 20 20 21 20 20 19 19
10 10 10 10 10 10 10 10 10 11 12 13 13 13 13 13 14 16 16 16 16 18 22 22 23 23 23 23 22 23 21 21 20 20 19 17 17 17 14 17 19 20 20 19 19 19 17 18 20 20 20 19 19 18
9 9 9 9 9 9 9 9 10 12 12 13 13 13 13 13 19 16 15 15 15 17 20 23 22 21 23 23 21 20 20 18 20 18 17 17 16 13 16 18 19 20 19 19 18 18 16 14 18 19 19 19 18 18
8 8 8 9 9 9 9 10 11 11 12 13 12 15 18 17 16 15 16 17 18 19 21 21 25 19 23 21 20 20 19 18 17 18 18 16 15 17 18 19 20 20 19 18 17 17 16 15 15 18 19 18 18 18
9 9 9 9 9 9 10 10 10 12 12 12 17 20 16 15 17 19 17 17 18 19 22 23 24 23 23 21 19 20 19 19 17 17 18 16 15 19 20 20 20 20 19 18 17 17 16 13 12 15 17 18 18 18
9 9 9 9 10 10 11 11 11 11 15 14 15 17 17 19 19 17 17 18 18 20 23 24 23 23 22 23 19 20 19 19 18 19 18 14 17 19 20 19 19 19 19 18 17 16 15 15 15 17 18 19 19 19
10 10 11 11 11 11 11 11 11 11 13 15 17 19 19 18 15 17 18 19 20 22 24 23 22 20 19 20 18 19 18 17 19 18 15 14 20 19 20 20 20 19 18 18 18 17 18 17 16 16 16 16 15 14
10 11 11 11 11 12 12 12 12 11 11 18 19 11 18 18 20 22 22 23 24 24 19 20 21 19 16 15 16 17 16 16 15 16 15 18 17 14 18 19 19 19 18 18 16 17 15 15 15 15 15 15 14 13
10 10 11 10 12 12 12 12 11 10 16 19 21 15 20 22 25 25 25 22 23 22 21 19 18 18 17 17 16 14 13 13 16 17 18 16 16 16 17 18 18 18 17 16 15 15 15 15 15 15 15 15 15 15
10 10 10 11 12 13 12 11 10 13 18 19 20 21 23 24 25 26 25 25 24 22 23 21 19 18 17 15 14 12 12 13 18 18 16 14 16 17 17 17 16 16 16 16 17 15 15 14 14 14 14 14 14 14
10 12 10 11 11 11 10 10 15 17 19 20 21 23 23 24 24 25 26 26 26 24 20 20 18 18 16 12 13 13 14 18 19 15 14 17 16 17 17 16 16 16 15 15 14 14 14 14 14 14 14 13 13 13
10 10 10 10 10 11 13 12 18 19 19 21 21 23 24 25 24 25 25 25 23 20 20 19 20 18 13 12 14 16 18 19 18 15 17 16 16 16 15 15 15 15 15 14 14 14 13 13 12 12 11 11 9 9
10 10 10 10 10 11 17 18 18 19 21 22 23 24 24 24 25 25 25 23 22 20 21 20 16 15 14 15 17 19 19 19 17 18 17 16 15 15 15 16 16 16 16 15 15 15 13 11 10 9 7 7 7 7
10 11 11 10 10 14 17 19 19 19 19 22 23 24 24 25 25 22 21 15 15 19 19 18 18 17 19 20 20 19 20 21 21 19 17 18 17 15 15 16 16 16 17 15 13 12 13 10 8 8 6 6 6 8
10 12 11 10 10 13 17 20 20 21 22 22 23 24 24 20 14 14 15 17 18 18 19 19 19 20 20 19 18 17 15 19 19 19 19 17 18 17 17 17 17 16 16 14 13 11 11 8 9 8 7 8 8 10
13 12 13 12 15 16 17 19 20 21 21 22 22 23 23 18 16 17 18 18 18 16 20 19 17 18 18 17 19 19 17 17 16 17 16 17 18 18 17 17 17 16 14 12 12 11 10 10 10 11 12 12 11 12
11 13 15 16 16 15 15 19 19 21 20 22 22 21 20 17 15 16 19 19 20 20 18 17 17 16 15 17 17 17 17 17 18 18 18 17 17 17 17 17 16 15 14 13 13 13 12 11 11 11 11 12 12 12
11 14 17 17 16 15 20 20 20 21 21 20 21 20 17 16 18 20 19 20 20 19 18 16 18 17 17 17 19 18 17 18 18 17 17 18 17 16 17 16 16 16 15 14 14 13 12 12 12 12 13 11 13 11
12 13 14 11 17 17 19 20 21 20 22 21 21 18 18 18 19 19 18 18 19 19 18 18 18 19 19 20 20 18 17 18 19 18 17 17 17 17 17 16 16 16 15 14 14 14 14 13 14 13 13 13 13 12
12 16 13 19 20 20 21 20 20 20 21 20 21 19 19 18 16 19 20 20 19 19 19 20 19 20 20 21 20 19 18 18 17 18 17 17 17 18 17 17 17 16 15 15 15 14 14 14 14 13 13 13 12 12
13 18 20 21 21 20 21 23 23 21 21 21 21 20 19 20 19 20 22 22 19 19 19 20 20 21 21 20 19 18 18 17 17 17 16 17 17 17 17 17 16 15 15 15 15 14 14 14 14 14 14 13 13 13
18 20 20 22 22 23 22 23 22 22 23 24 22 19 19 20 21 22 23 22 21 21 21 21 21 21 20 19 18 18 17 17 16 16 16 16 16 16 15 15 13 13 13 12 13 14 14 14 14 14 13 13 13 13
18 21 22 21 22 23 23 23 23 25 24 23 21 17 17 20 23 23 22 22 21 21 21 21 21 20 19 19 18 18 17 17 17 16 16 17 17 16 15 14 13 14 14 13 12 12 12 12 12 13 13 13 13 12
20 22 22 22 22 22 24 25 25 26 25 24 21 18 20 23 23 22 22 22 21 21 21 21 20 20 20 19 19 18 18 18 18 18 18 18 18 17 16 15 15 15 15 14 13 12 12 12 12 12 13 13 13 13
23 23 23 23 23 24 25 26 26 25 24 23 20 20 22 20 23 22 22 22 21 21 21 21 20 20 20 20 20 19 19 18 18 18 17 18 17 16 16 15 15 15 15 15 15 15 14 14 14 14 14 13 13 12
23 22 23 22 23 25 26 25 24 19 19 20 22 21 22 20 21 23 22 22 22 22 21 21 21 21 20 20 20 20 19 19 18 17 16 16 17 16 15 15 15 15 15 15 15 15 15 14 15 14 14 13 13 12
23 23 24 24 24 24 25 24 23 20 20 20 21 22 20 21 18 15 21 22 21 22 22 22 21 20 20 20 20 20 19 18 18 17 16 16 16 15 15 15 15 15 15 15 15 16 15 15 14 14 14 14 13 13

GFSWCAN_925_temp_084.txt.gz
Temp
9 8 9 11 10 11 11 11 11 11 12 13 14 14 15 15 15 16 18 19 18 14 15 20 23 21 18 16 16 17 17 16 14 15 13 11 11 13 13 17 18 15 12 11 14 15 16 18 19 19 17 16 16 16
11 10 8 8 8 10 11 11 11 10 12 13 13 14 14 15 15 16 17 18 18 15 16 21 23 24 23 22 16 16 16 15 14 13 13 12 13 13 13 12 17 14 14 13 14 13 14 17 18 18 17 16 16 15
12 11 10 8 8 8 10 10 10 10 11 13 13 14 14 14 15 15 16 17 17 13 15 17 19 24 24 24 23 17 15 16 16 13 13 13 16 12 13 13 16 17 15 12 14 17 18 19 19 18 18 17 16 16
12 12 11 10 8 8 9 10 10 10 11 13 13 13 14 14 15 15 16 17 16 14 14 17 22 23 24 24 23 23 19 18 16 13 13 13 15 14 13 14 13 14 17 15 14 15 18 18 18 17 18 17 17 16
11 10 10 10 9 8 10 10 10 11 11 13 13 13 14 15 15 16 16 16 16 15 14 14 19 23 23 23 23 22 20 15 14 14 13 15 13 14 12 13 13 15 15 12 12 14 14 14 17 16 16 17 16 16
9 9 9 9 10 10 10 10 10 10 11 13 13 14 14 15 15 16 13 16 17 17 14 15 18 21 22 22 22 20 18 15 14 13 13 13 13 13 12 10 14 15 15 13 15 14 14 16 16 18 15 15 15 15
9 9 9 9 10 11 11 10 10 10 12 13 13 14 14 15 14 14 14 16 17 17 14 15 16 19 21 20 17 17 17 15 14 13 14 13 14 12 11 10 14 15 16 15 16 17 17 17 16 16 17 17 18 17
10 9 9 9 10 11 11 10 10 10 12 13 13 14 14 14 15 15 17 17 16 16 14 15 16 17 20 16 16 14 14 13 13 13 12 12 12 11 11 12 13 15 15 15 16 15 14 15 15 16 16 15 14 14
9 9 9 9 9 9 9 10 10 10 12 13 14 14 14 14 14 16 16 16 16 15 13 14 15 16 17 16 15 14 12 13 13 13 12 12 11 10 12 12 13 14 15 16 17 17 15 14 14 15 14 15 15 13
9 9 8 9 9 9 9 9 10 11 12 13 14 13 13 15 16 16 16 13 12 12 11 13 14 17 16 14 14 14 12 14 14 13 12 12 11 11 11 12 14 14 15 16 16 15 15 14 12 13 12 13 13 12
8 9 9 9 9 9 9 10 11 12 13 13 12 13 14 15 15 13 14 14 13 14 13 13 14 16 16 15 15 14 14 13 12 13 13 9 12 13 14 13 13 14 15 14 14 13 14 12 12 11 11 12 11 11
10 9 9 9 9 9 9 10 11 12 11 11 10 12 14 13 13 15 14 15 16 15 15 16 16 15 13 13 13 13 14 14 14 14 14 12 12 12 13 14 15 14 15 14 16 14 14 14 14 12 11 11 11 11
10 10 10 10 10 10 11 11 11 11 12 12 11 13 15 13 12 15 15 16 15 15 15 16 15 13 13 12 12 13 14 14 14 13 12 11 11 11 12 15 14 15 16 14 13 14 15 14 13 13 12 12 12 12
10 10 10 11 11 11 11 11 12 12 12 11 14 11 13 14 14 14 14 14 14 13 14 14 14 14 13 14 13 14 13 13 13 13 13 12 10 10 12 12 13 13 12 13 13 13 13 13 13 13 13 13 13 12
9 10 10 11 11 11 12 12 12 12 11 12 14 12 14 15 14 15 15 14 13 13 13 13 13 14 14 13 12 12 13 13 13 11 12 10 10 11 11 12 12 12 10 10 12 12 12 12 12 13 13 12 12 12
9 10 11 11 11 11 12 11 11 12 12 12 14 15 15 16 15 16 18 13 13 13 12 12 14 15 14 13 13 13 13 12 12 11 11 10 12 11 10 11 11 11 11 11 12 12 12 11 11 10 10 10 9 9
10 10 10 10 11 10 10 11 11 11 12 15 14 14 15 15 15 15 16 16 14 13 14 13 16 15 12 13 13 12 11 12 11 11 11 10 11 10 10 11 12 11 11 12 11 11 10 10 10 8 7 7 8 7
9 10 10 10 10 11 11 11 11 14 14 14 14 14 15 15 16 15 14 14 13 14 13 15 13 14 13 12 12 11 11 11 12 10 11 10 10 11 13 12 13 13 12 12 11 10 10 9 7 7 7 7 7 7
9 10 10 10 10 10 11 12 12 13 14 14 14 14 15 15 13 13 12 12 13 13 14 14 15 14 12 11 12 12 11 11 11 10 10 12 13 13 14 13 12 11 11 10 9 9 8 8 8 8 7 8 7 7
10 10 10 10 10 10 13 14 15 13 14 15 14 15 15 15 13 13 12 12 12 13 14 15 14 13 13 12 11 12 12 12 12 11 10 10 13 13 12 11 10 11 10 9 9 9 9 9 9 8 8 8 8 7
10 11 11 11 10 9 11 12 15 14 15 15 15 16 16 13 13 13 13 11 13 13 13 13 14 15 14 13 15 14 12 13 12 12 12 9 12 13 11 11 11 12 10 9 8 9 9 9 10 10 10 10 9 9
10 11 11 10 10 12 10 13 12 13 14 14 15 15 15 16 14 13 13 13 13 13 12 13 13 12 12 12 12 15 15 15 14 13 13 13 9 9 10 11 11 9 10 10 10 9 10 10 10 10 10 10 11 11
11 11 12 13 12 11 10 15 14 14 15 16 16 17 14 14 14 13 14 14 14 14 13 13 13 15 12 14 15 15 16 15 12 12 13 13 14 12 12 12 12 11 10 11 11 11 11 11 11 11 11 11 11 11
10 11 13 13 12 10 13 14 15 16 17 16 17 15 14 14 13 13 14 14 14 13 13 12 13 11 12 13 13 14 15 16 15 14 16 15 12 12 13 13 13 13 13 13 12 12 12 11 11 11 11 11 11 11
10 9 8 7 11 14 15 16 16 17 17 17 17 14 14 13 14 14 15 15 14 14 12 12 11 11 11 11 11 14 16 16 14 11 14 16 15 14 13 13 14 14 13 13 12 12 12 12 12 11 11 11 11 11
10 11 9 14 14 15 16 18 17 18 17 17 17 16 15 14 16 17 15 13 13 14 15 12 12 11 12 13 11 11 15 16 17 14 15 16 16 15 12 9 10 12 13 14 13 13 13 13 12 12 12 12 12 11
10 12 13 13 14 15 16 18 17 16 17 19 16 16 16 17 17 16 14 13 13 15 17 17 16 14 15 15 17 17 17 17 17 17 16 16 16 16 16 13 12 14 14 14 14 14 14 13 13 13 12 13 12 12
13 14 14 15 15 15 17 17 18 19 18 18 17 17 18 18 17 15 14 18 19 18 18 18 18 18 17 17 17 17 17 17 16 16 15 15 15 16 15 14 14 14 14 14 14 14 14 13 13 13 13 12 12 12
13 14 15 15 16 16 16 17 18 18 18 16 17 16 16 15 16 15 18 19 19 19 17 16 16 17 17 17 17 16 16 16 15 12 12 9 10 12 14 14 14 14 14 13 13 13 13 13 13 13 12 12 12 12
14 14 15 17 17 17 17 18 18 19 18 16 15 14 14 15 17 19 20 19 18 16 17 16 16 16 15 15 15 16 16 16 16 15 11 10 12 14 14 14 13 14 13 13 13 13 13 12 12 12 12 12 12 12
15 15 16 16 17 17 19 18 19 19 16 13 13 14 15 15 18 17 18 19 20 19 17 16 16 17 16 15 15 14 13 17 16 16 16 16 16 14 15 15 14 14 14 14 14 13 13 13 13 13 13 12 12 12
15 16 16 18 18 19 18 19 18 17 16 15 13 13 13 14 15 13 14 16 18 18 19 18 17 17 18 18 18 18 18 17 17 17 16 17 16 15 15 15 15 14 14 14 14 14 13 13 13 12 13 13 12 12
17 17 17 18 18 19 18 19 18 17 15 15 15 14 14 13 13 12 13 13 13 14 14 16 18 18 19 19 19 18 18 18 18 17 17 17 16 16 15 15 15 15 15 15 15 14 14 14 13 14 13 13 13 13

GFSWCAN_925_temp_087.txt.gz
Temp
12 11 11 9 8 10 9 10 11 10 10 12 13 14 14 15 16 16 17 17 16 13 14 19 20 20 17 14 15 16 16 15 13 14 12 9 10 12 12 16 17 15 12 9 12 14 16 18 18 21 17 15 16 18
12 12 12 11 9 8 8 9 10 9 10 11 13 13 14 14 15 16 17 17 17 14 16 19 21 22 23 19 14 12 15 14 13 12 12 11 11 12 12 12 15 13 14 12 13 12 14 14 18 17 15 15 15 14
11 12 12 11 10 9 8 8 10 9 10 11 13 13 14 14 15 16 16 16 17 12 15 17 19 23 23 23 23 16 13 14 14 12 11 11 15 10 13 12 16 16 13 11 14 16 17 18 17 17 16 16 14 14
11 11 11 10 11 9 8 8 10 9 10 11 13 13 14 14 15 15 15 15 15 12 14 16 19 21 23 23 23 22 17 15 12 11 11 11 14 12 11 13 12 13 14 13 13 15 16 17 17 16 17 15 15 14
10 10 9 10 10 10 8 9 9 10 10 11 12 13 14 14 15 15 16 16 16 15 14 13 17 21 22 22 22 21 19 14 12 13 12 13 11 12 10 11 12 13 14 12 12 13 14 14 16 16 15 15 14 14
10 9 9 9 9 10 9 9 10 10 10 12 12 13 14 15 15 15 12 15 16 16 13 15 16 19 20 21 20 17 16 12 11 13 12 11 12 12 12 9 12 12 12 12 14 13 13 16 16 17 16 15 14 14
10 10 9 9 9 9 10 10 9 10 10 12 13 13 14 14 15 15 13 15 16 16 13 15 14 16 19 18 15 14 15 12 13 11 12 12 12 11 9 8 13 13 15 13 14 13 16 16 16 16 17 17 16 16
9 9 9 9 9 9 9 9 9 10 11 12 13 13 14 14 15 16 16 17 16 16 13 14 15 16 18 15 16 11 13 12 12 12 11 12 11 10 10 11 12 13 15 15 14 14 15 15 15 14 15 15 14 13
9 9 9 9 9 9 9 9 10 10 11 13 13 14 14 14 14 15 16 16 16 15 13 13 14 15 15 13 12 13 11 13 11 13 11 11 10 10 12 12 13 13 13 14 15 15 14 15 13 13 14 14 13 12
9 9 9 9 9 9 9 9 10 10 12 13 13 13 13 14 14 15 14 12 12 11 10 12 12 14 14 12 13 14 12 14 13 12 10 11 10 10 11 11 12 13 14 14 15 15 15 14 12 13 13 12 11 11
9 9 8 8 8 9 9 9 10 11 12 12 12 13 13 14 14 12 13 13 12 14 11 12 12 15 13 14 15 14 13 12 13 12 13 9 11 11 13 12 11 12 13 12 14 14 13 13 11 11 11 11 12 11
9 9 9 9 9 9 9 10 11 12 11 11 11 12 13 12 12 14 13 13 13 14 13 14 14 13 13 11 13 11 14 12 14 13 13 12 11 12 11 14 13 12 13 13 14 13 14 13 13 12 12 11 11 11
9 9 10 10 10 10 11 11 11 11 12 11 11 13 13 12 12 14 14 14 13 14 14 14 14 12 12 11 11 13 14 13 13 13 12 11 12 11 11 12 13 14 14 13 13 14 13 14 14 13 12 12 12 11
9 9 10 11 11 11 11 11 12 12 12 11 12 9 12 13 13 13 13 13 13 13 13 13 13 13 12 13 11 14 12 12 13 13 13 11 11 11 10 11 11 11 11 11 11 12 13 12 12 12 12 12 11 11
9 9 10 11 11 11 12 12 12 12 11 11 12 11 13 13 13 13 12 13 13 12 12 12 12 12 12 12 11 12 13 13 13 12 10 10 10 10 11 11 10 10 10 10 11 11 11 11 11 10 9 9 9 9
9 10 10 10 10 11 12 11 11 11 10 10 11 13 13 14 14 14 14 13 11 11 11 11 13 14 13 12 13 13 14 13 11 10 10 9 10 10 9 9 9 10 10 10 11 10 10 10 9 8 8 8 8 8
9 10 10 10 10 10 10 11 10 10 11 13 13 11 13 13 13 13 14 13 12 13 13 12 14 14 11 12 12 12 12 11 10 10 9 9 9 8 8 9 10 11 10 10 10 10 9 8 8 8 7 7 7 8
9 9 9 9 10 10 10 10 11 12 12 13 12 13 12 12 13 13 13 12 12 12 13 14 12 13 12 12 11 11 10 9 9 9 9 9 9 9 10 9 10 10 10 10 9 8 8 8 7 6 7 7 7 7
9 9 9 9 10 10 10 11 10 13 13 13 12 11 13 13 12 12 11 11 11 11 11 12 13 12 12 11 12 10 9 9 9 9 9 10 11 11 11 11 11 11 10 8 8 8 8 8 7 7 7 7 6 7
9 10 10 10 9 9 11 12 13 11 13 13 12 13 13 13 12 11 11 11 11 12 13 14 13 12 12 11 10 10 10 9 10 9 9 8 10 11 11 11 10 10 9 8 8 8 8 8 8 8 8 8 7 7
9 10 11 10 9 9 9 11 12 13 12 13 13 13 14 12 12 12 12 10 12 12 13 12 12 12 12 13 12 11 9 12 12 11 11 9 9 12 10 9 10 9 8 7 7 8 8 8 9 9 9 9 9 8
9 10 10 9 9 10 8 10 10 11 11 12 12 13 13 13 12 12 11 12 12 12 11 11 12 11 10 10 10 13 13 13 12 12 11 10 7 6 8 9 8 7 8 8 9 9 9 10 10 10 9 10 10 10
9 10 10 9 10 10 10 12 12 12 13 13 14 15 14 13 12 11 12 12 12 11 12 11 11 12 11 12 13 13 13 13 9 10 11 11 11 11 10 10 11 10 8 9 10 10 10 10 10 10 10 10 10 10
10 10 11 12 10 10 11 12 12 13 15 14 15 16 14 13 12 12 13 12 13 12 11 11 11 10 10 11 11 12 13 13 12 11 12 11 8 9 11 12 11 12 12 12 11 11 11 11 11 10 11 10 10 10
9 9 9 7 10 13 14 14 14 14 15 15 16 15 14 12 13 14 14 13 12 12 11 10 10 12 10 10 10 13 14 14 11 8 11 14 13 10 10 10 12 12 12 12 11 11 11 11 11 11 11 11 11 11
9 11 8 12 12 12 15 16 16 16 15 16 16 15 13 13 14 15 14 12 12 11 10 11 11 10 10 11 9 9 14 15 16 12 13 14 14 12 10 8 8 11 13 13 13 12 12 11 11 11 11 11 11 11
10 12 10 9 11 13 15 16 15 15 17 17 15 15 15 16 16 15 12 11 11 13 15 14 13 12 12 12 14 15 16 15 16 16 17 15 15 16 15 11 10 13 14 13 13 13 13 12 12 12 12 12 12 12
10 11 12 13 13 13 15 16 16 16 18 15 15 15 16 17 16 14 13 15 16 16 16 16 16 16 16 16 17 16 15 15 14 15 15 15 15 14 14 15 15 15 14 14 13 13 13 13 13 12 12 12 12 12
10 11 12 13 14 13 14 15 15 15 15 15 15 15 14 15 13 13 16 17 17 16 14 14 15 16 16 15 15 16 16 14 13 10 10 9 10 13 15 14 15 14 15 14 13 14 14 13 13 13 13 12 12 12
11 11 12 13 14 15 15 13 15 15 14 13 13 13 13 13 15 15 17 16 15 14 16 17 16 15 13 13 13 14 16 16 16 13 10 9 11 14 14 14 14 13 13 13 13 13 12 12 12 12 12 12 12 11
12 11 13 13 14 14 15 15 15 14 13 12 11 13 14 13 14 13 14 14 16 16 15 13 14 14 14 13 13 13 12 16 16 16 16 16 15 14 14 14 14 13 13 13 13 13 13 12 12 12 12 12 12 12
12 13 13 14 15 15 15 15 15 14 13 13 13 12 13 14 13 12 12 13 15 15 15 15 15 14 16 17 17 17 17 17 16 16 16 16 15 15 14 15 14 14 14 13 13 13 13 13 13 12 12 12 12 12
13 13 13 14 15 16 15 15 16 14 13 13 13 13 13 12 13 12 11 12 12 12 12 14 15 16 17 16 16 16 17 18 18 17 17 16 16 16 14 15 14 14 14 14 13 13 13 13 12 12 13 12 12 12

GFSWCAN_925_temp_093.txt.gz
Temp
10 8 8 9 9 11 11 10 8 9 9 9 10 12 13 13 14 15 15 15 15 18 19 18 20 19 18 19 22 19 20 20 19 19 19 16 18 17 18 18 19 20 20 19 19 20 20 20 21 22 21 20 20 21
8 8 8 9 9 10 10 9 9 8 8 9 10 12 13 13 14 14 14 15 15 16 19 17 18 19 20 21 20 16 20 19 19 19 17 16 17 17 17 18 17 18 19 19 20 20 18 18 19 19 19 20 20 20
8 9 9 9 9 9 9 9 9 8 8 9 10 12 13 13 14 14 15 15 15 17 19 19 21 19 20 20 21 22 18 17 17 16 18 18 19 17 19 18 18 18 16 18 18 19 19 19 19 19 19 20 19 18
8 9 10 10 9 9 9 9 9 8 8 9 10 11 12 13 13 14 14 15 15 15 20 21 18 19 20 20 20 20 17 14 15 17 19 19 19 16 18 17 18 19 17 18 19 18 18 19 19 20 20 19 18 18
8 8 9 9 9 9 9 9 9 8 9 10 10 12 12 13 13 14 15 15 15 17 19 19 17 17 19 19 18 18 18 19 19 19 19 19 16 17 15 16 18 18 19 18 19 21 21 21 19 19 19 20 19 18
8 8 9 9 9 9 9 9 9 9 10 10 11 12 12 13 14 14 16 14 15 15 17 20 17 18 17 17 17 17 17 17 18 20 19 16 14 17 18 17 19 18 17 18 20 18 18 18 18 18 19 18 18 18
9 9 9 9 9 9 9 9 9 10 10 10 11 12 12 13 13 15 16 14 14 15 17 19 19 18 17 17 17 18 16 16 18 17 18 18 17 17 17 16 20 18 17 16 16 17 18 18 19 18 18 17 17 17
8 8 9 9 9 9 9 9 9 9 10 10 11 12 12 13 14 14 15 15 15 14 16 17 18 19 17 19 19 15 18 17 16 16 15 17 15 16 16 18 17 16 16 16 17 17 18 18 18 17 17 17 17 17
8 9 9 9 9 9 9 9 9 9 10 11 12 12 12 13 14 14 14 14 14 15 17 16 18 19 16 16 16 16 16 17 14 17 16 15 15 13 18 18 17 17 17 18 17 17 17 18 18 17 17 17 17 17
9 9 8 9 9 9 9 9 9 10 10 11 11 12 14 13 13 13 13 15 15 14 14 17 16 17 17 16 17 18 16 16 17 16 14 14 15 16 16 16 16 17 16 16 16 16 16 17 17 16 16 16 16 16
9 9 8 8 8 8 8 8 9 9 11 11 12 14 12 13 13 15 15 16 15 15 15 16 16 18 16 18 17 16 16 15 17 16 16 15 13 16 15 15 15 15 15 16 17 18 17 17 17 16 16 15 14 14
9 9 9 9 8 8 8 9 10 10 11 11 12 12 13 14 14 15 15 14 15 16 15 16 16 17 15 15 16 15 17 15 17 16 16 13 16 15 15 15 15 14 15 16 16 16 16 16 16 15 15 14 14 13
8 9 9 9 9 9 9 9 9 10 11 11 11 12 13 14 13 14 15 15 15 16 15 15 16 16 14 15 15 16 16 17 16 16 15 14 16 14 14 14 15 15 15 15 15 15 15 14 13 13 13 12 12 12
8 8 9 9 10 10 10 10 10 10 11 11 12 12 14 14 15 16 16 16 16 15 14 15 14 16 14 16 15 17 15 16 15 15 15 17 15 15 14 14 15 15 15 15 14 14 13 12 11 10 10 10 10 10
8 8 9 9 10 10 11 10 10 10 10 13 13 12 15 16 16 16 15 14 14 14 14 14 14 15 15 15 13 14 14 15 16 17 17 15 14 14 14 14 14 14 14 14 13 13 12 11 11 10 9 9 9 9
8 8 9 9 9 10 11 11 10 10 10 12 12 14 15 16 17 16 16 16 14 14 13 15 15 16 15 15 15 16 16 16 18 17 16 13 13 13 14 14 14 14 13 13 12 11 11 11 11 9 9 9 9 8
8 8 8 9 9 10 10 9 10 11 12 13 14 14 15 15 16 17 17 17 14 16 17 16 17 16 14 16 16 16 17 18 18 15 14 13 13 13 13 13 13 12 12 12 11 10 10 9 9 9 10 9 9 8
8 8 8 8 9 9 9 9 10 12 13 14 15 16 14 15 16 16 14 14 14 15 15 17 15 16 17 16 16 18 17 17 15 14 13 13 13 12 12 13 12 12 11 10 10 10 9 9 10 10 9 8 9 9
8 8 8 9 9 9 10 11 10 12 14 14 14 15 15 16 15 15 15 14 13 13 15 16 16 17 18 17 19 18 16 15 15 12 13 13 12 12 12 12 12 11 10 10 10 11 10 10 10 9 9 9 9 8
8 8 8 9 9 9 11 12 10 11 14 15 14 15 16 16 15 14 13 13 13 15 15 16 18 19 19 19 16 16 15 14 14 14 13 13 12 12 12 12 13 11 10 9 9 9 9 9 9 9 9 8 8 9
8 8 9 9 9 9 10 11 12 14 14 14 15 15 16 14 14 14 13 12 15 15 16 16 18 19 16 16 15 15 14 15 16 17 16 14 12 13 12 12 11 10 11 11 11 10 10 11 11 10 9 8 9 9
8 8 8 9 9 9 9 10 12 13 13 15 15 15 17 16 15 14 13 14 15 16 16 16 17 17 15 14 15 13 14 14 14 12 13 12 13 12 12 12 11 11 11 11 11 11 11 10 10 9 9 10 10 10
8 8 8 9 10 9 10 10 13 14 14 16 15 15 15 14 14 12 15 15 16 15 15 14 15 14 15 13 12 12 12 13 15 15 13 15 14 13 13 11 12 12 12 11 11 11 11 10 10 9 10 10 10 11
8 9 10 10 10 10 12 13 13 13 14 15 15 16 15 15 13 14 16 16 16 14 14 14 14 14 13 12 15 14 13 14 15 13 13 14 14 12 13 13 12 12 12 12 10 10 10 10 10 10 10 10 11 11
9 9 9 8 10 12 13 15 15 15 15 16 16 16 16 14 15 14 16 18 16 16 16 14 14 15 17 17 16 14 12 14 14 15 12 14 15 12 12 12 11 11 11 11 11 11 11 11 11 11 11 11 11 11
8 10 9 13 13 13 14 15 15 15 16 16 15 14 13 14 14 15 17 18 16 16 15 15 15 15 16 17 17 16 13 12 13 15 12 13 13 14 13 13 12 11 10 11 12 12 12 12 12 11 12 11 11 11
10 12 12 12 13 13 14 15 15 16 15 14 13 14 15 15 17 17 15 15 16 15 15 15 15 17 18 16 14 13 13 13 14 15 13 12 13 14 14 14 13 14 13 11 12 12 12 12 12 12 12 12 12 12
11 12 13 14 13 14 15 16 17 14 15 14 15 16 17 18 19 18 17 15 14 14 15 15 15 16 16 16 15 13 12 12 13 13 11 11 10 11 12 13 13 13 14 13 12 12 12 13 13 13 12 13 13 12
10 12 13 13 14 15 15 16 17 17 16 17 18 18 18 16 14 14 14 13 13 14 14 15 14 14 14 13 13 13 13 13 14 15 15 16 14 13 13 13 13 13 13 13 13 13 12 12 12 12 12 13 12 12
12 13 13 14 14 15 17 17 17 17 17 17 16 15 15 14 13 11 12 13 14 14 16 15 14 15 15 15 14 12 12 13 15 16 15 15 15 16 15 15 14 13 11 12 12 11 12 12 12 12 11 12 12 12
13 13 13 14 15 16 17 18 17 17 16 15 14 15 15 14 14 13 13 12 13 14 13 13 12 13 15 12 11 11 11 11 12 13 14 14 15 15 15 15 15 14 13 11 12 12 12 12 12 12 12 12 12 12
13 13 14 14 15 16 16 16 17 16 16 15 15 15 15 16 16 14 12 13 13 13 11 11 12 13 13 13 13 14 14 15 15 14 14 15 16 15 15 15 15 14 14 12 12 13 12 13 13 12 12 12 12 12
14 14 14 15 16 17 16 16 17 15 15 15 15 15 14 14 15 13 11 11 11 11 10 11 11 12 13 14 15 15 16 15 16 16 15 15 15 15 15 15 15 14 13 13 13 13 12 12 12 12 12 12 12 12

GFSWCAN_925_temp_096.txt.gz
Temp
11 10 8 8 9 9 9 9 9 9 9 9 9 9 11 13 13 14 17 15 18 23 24 23 24 24 24 25 25 23 24 24 24 23 23 22 22 22 22 23 23 24 24 24 24 24 23 24 25 24 23 25 25 25
9 8 8 9 9 8 8 9 9 9 9 8 9 9 10 13 14 14 18 15 15 20 23 20 22 22 24 25 25 24 24 24 25 24 23 23 22 22 23 21 22 22 24 23 24 24 23 23 23 23 24 24 24 24
10 8 8 8 10 10 9 9 9 9 9 8 9 10 10 12 13 14 16 16 17 22 24 24 24 22 22 23 24 25 24 24 23 23 24 24 22 23 22 23 23 22 22 23 22 24 23 23 23 24 24 24 24 24
8 8 8 8 10 9 9 9 9 10 9 8 9 10 11 12 13 14 15 16 17 22 24 24 22 23 21 23 23 24 23 22 23 24 24 24 23 23 23 22 22 23 22 23 23 23 22 23 23 23 23 23 23 23
8 8 8 9 9 9 9 9 9 9 9 9 10 10 11 12 13 14 14 15 15 19 24 25 23 21 22 22 23 23 23 24 24 23 24 24 23 22 22 22 23 23 23 22 23 24 23 24 24 23 23 23 23 22
8 9 9 9 9 9 9 9 9 9 9 9 10 10 11 12 13 14 19 16 15 16 22 23 23 22 21 22 23 23 23 23 24 24 24 23 21 22 22 22 23 24 24 24 23 23 23 23 23 23 23 22 22 22
9 8 8 9 9 9 9 9 9 9 9 9 10 11 12 12 13 17 18 15 15 15 22 23 23 22 21 22 23 23 22 23 24 23 22 23 22 20 22 20 23 23 23 22 22 21 21 22 22 22 22 21 19 21
9 8 9 9 9 9 9 9 9 9 9 9 10 11 12 13 14 16 15 15 14 19 21 22 22 22 22 23 23 22 23 23 22 23 21 22 21 21 20 22 22 21 21 21 21 22 22 22 21 21 20 20 21 21
9 9 9 9 9 9 9 9 9 9 9 10 11 12 11 13 17 17 15 15 14 17 21 21 22 22 21 22 23 22 22 22 21 22 21 20 21 17 21 22 22 21 21 21 21 21 21 21 21 20 21 20 20 20
9 9 8 8 8 9 9 9 9 9 10 10 11 13 17 17 14 14 15 18 19 20 20 21 22 21 22 22 22 22 22 22 20 21 19 19 19 21 21 21 21 21 21 21 20 20 20 20 20 20 20 20 19 19
8 8 8 8 8 8 8 9 9 9 10 10 14 16 14 13 16 19 19 19 20 19 18 20 22 21 21 22 22 22 21 21 20 21 20 19 16 21 19 20 20 20 20 20 21 21 21 21 20 20 19 19 18 18
8 8 8 8 8 8 8 9 10 10 10 12 12 12 14 16 18 18 19 19 18 19 19 20 21 22 21 21 20 20 20 20 20 21 20 17 20 19 19 19 19 19 19 20 20 20 20 20 19 19 19 18 18 17
8 8 8 8 8 8 8 9 10 10 10 11 13 15 16 17 14 17 17 18 19 19 19 19 19 21 19 21 20 20 20 21 21 19 18 18 20 19 18 18 18 19 19 19 19 19 18 18 17 18 17 16 16 16
8 8 8 9 9 9 9 9 9 10 10 13 13 11 14 16 18 20 20 21 21 20 20 21 20 21 20 19 20 20 20 20 19 19 19 23 20 19 18 19 19 19 19 19 18 17 17 15 15 14 14 14 14 14
8 8 8 9 9 10 9 10 9 10 10 12 12 13 16 20 20 20 21 20 19 20 19 19 20 21 20 19 19 19 18 18 20 20 22 22 19 18 18 19 19 19 18 18 16 15 15 15 15 14 13 13 13 13
7 8 8 8 9 10 10 10 9 10 12 14 16 17 19 19 21 20 20 20 18 17 18 19 18 19 20 20 19 19 19 20 22 22 22 19 18 18 18 18 18 18 17 17 16 16 15 15 14 13 13 13 12 12
7 8 8 8 9 9 9 11 12 14 16 16 18 19 19 20 21 20 20 20 19 18 18 20 19 20 20 19 20 21 21 23 23 22 21 19 17 17 18 17 17 17 16 16 15 15 14 14 13 13 13 12 12 11
7 8 8 8 9 9 9 10 12 14 15 18 18 20 19 20 20 20 19 19 20 20 20 20 20 20 20 20 20 22 23 23 22 21 20 18 17 16 17 16 16 15 15 15 14 14 13 13 13 13 12 12 12 12
8 7 7 8 9 9 11 11 11 12 16 18 19 19 19 20 20 21 20 19 19 20 20 20 19 21 22 22 23 23 23 22 21 19 18 17 16 16 16 16 15 15 15 14 14 15 14 13 14 13 13 13 14 13
7 8 8 8 8 10 11 12 11 14 16 18 18 19 19 20 20 20 20 19 19 19 19 19 21 23 23 24 23 23 23 22 20 16 17 17 17 16 16 16 16 15 14 14 14 13 14 13 13 13 13 13 13 13
7 8 8 8 8 9 11 13 15 15 16 17 19 19 19 20 19 19 19 18 18 19 20 22 23 24 23 22 22 21 21 20 21 21 20 19 17 17 16 16 16 16 16 15 15 14 13 14 14 13 13 13 13 13
9 8 8 9 10 10 12 13 16 16 16 18 18 19 19 18 18 18 18 18 19 21 21 22 22 23 23 20 21 18 20 18 19 19 19 18 18 18 17 17 16 16 16 15 15 15 14 14 14 13 13 14 12 14
8 8 11 11 12 11 12 14 15 17 16 18 19 18 19 19 18 17 18 19 21 22 22 22 21 20 20 20 18 17 17 17 19 19 18 18 18 18 17 17 16 16 16 15 15 15 14 13 12 13 14 13 14 14
8 9 11 13 12 12 14 13 15 16 17 18 18 18 18 18 14 15 18 21 22 21 21 19 19 20 19 17 19 19 17 18 19 19 18 19 19 18 17 17 17 16 16 15 14 14 14 13 13 13 14 14 14 14
9 10 9 9 12 13 14 16 17 17 17 18 18 18 18 17 17 18 19 19 22 21 21 20 20 20 20 20 21 20 17 19 20 20 19 19 18 17 17 17 16 16 15 15 14 14 14 14 13 14 14 14 14 14
10 12 11 15 16 15 15 16 16 17 18 18 17 16 16 16 17 18 19 21 22 21 21 20 20 20 20 21 21 20 18 19 19 20 18 18 18 18 18 18 17 15 15 15 15 14 14 14 14 14 14 13 12 13
10 14 15 16 16 16 17 18 18 17 15 13 13 14 15 16 18 19 21 21 21 20 19 19 20 20 21 20 20 19 18 18 18 19 17 18 18 18 17 17 17 16 15 15 15 15 15 14 15 14 15 15 14 14
15 15 14 16 16 18 16 17 16 13 13 13 13 15 16 18 19 20 20 19 19 19 19 19 19 20 21 20 19 17 17 17 16 17 16 16 17 17 17 17 17 16 16 15 15 15 15 15 15 15 15 15 15 14
14 16 16 15 16 17 17 18 15 16 16 15 18 18 18 19 18 18 18 15 14 18 20 20 19 19 19 18 18 18 17 18 18 18 17 18 17 15 14 14 14 15 15 15 14 14 15 15 15 15 15 15 15 14
14 16 16 17 17 17 19 20 19 20 20 20 19 19 19 19 16 16 17 17 18 18 18 20 20 19 19 19 18 17 18 18 19 19 19 19 18 17 15 15 15 15 15 15 15 14 13 13 14 14 14 14 15 14
16 17 16 17 17 19 20 21 21 21 21 19 18 18 18 18 17 16 16 17 17 17 16 16 16 17 18 17 18 16 17 14 14 15 16 17 17 17 16 15 15 15 15 15 15 15 14 13 15 15 15 15 15 14
16 16 16 16 18 19 19 19 20 20 19 18 18 19 19 19 17 17 15 16 17 17 13 14 13 13 12 12 13 14 14 14 14 14 14 14 15 14 14 14 14 15 15 15 15 15 15 15 15 15 15 15 15 14
16 17 17 17 18 18 20 19 19 18 17 17 16 18 18 17 16 15 15 14 13 12 10 11 11 11 11 12 12 12 15 15 15 15 15 15 15 15 14 14 15 15 15 15 15 16 15 15 16 15 15 15 15 14

GFSWCAN_925_temp_102.txt.gz
Temp
9 9 9 9 9 8 8 9 9 9 9 9 9 9 10 11 13 13 17 19 21 23 26 29 30 29 28 28 28 28 28 28 28 27 27 26 25 19 20 26 26 25 26 26 26 22 21 25 25 25 24 28 29 29
9 9 9 9 8 8 8 9 9 9 9 9 9 9 9 10 13 13 16 20 21 21 25 26 28 29 29 29 28 28 28 27 28 28 28 28 26 27 26 25 28 25 26 25 26 22 23 25 26 27 28 27 27 28
10 9 9 9 8 8 8 9 9 9 9 9 9 9 9 10 12 13 14 17 21 22 25 26 27 27 27 28 29 28 29 29 28 28 27 28 26 27 26 27 27 27 27 26 26 25 26 27 27 27 27 27 27 28
9 9 9 9 9 9 9 8 9 9 9 9 9 9 9 10 12 13 14 18 21 23 24 27 28 28 27 28 28 28 28 28 28 27 27 28 27 27 27 27 26 27 26 26 26 27 26 26 27 27 26 26 27 27
10 9 9 8 8 9 9 9 9 9 9 9 9 9 10 10 12 13 14 16 19 21 23 25 28 28 27 28 27 27 28 27 27 27 27 27 29 27 27 27 27 28 27 26 26 27 26 26 26 26 26 25 26 26
10 9 9 9 9 9 9 9 9 9 9 9 9 9 10 11 12 13 19 19 19 21 22 24 28 28 27 27 27 27 27 27 27 28 28 29 27 26 26 26 27 28 28 27 26 27 26 27 26 26 26 26 25 25
9 9 9 10 9 9 9 9 9 9 9 9 10 10 10 11 11 16 17 16 18 20 22 24 26 27 27 27 27 27 27 27 27 27 27 27 26 25 25 24 27 27 27 27 27 26 25 26 25 26 25 25 24 25
8 8 9 9 9 9 9 9 9 9 9 10 10 10 11 12 13 16 18 17 17 20 23 23 24 24 27 26 26 27 26 26 26 26 27 26 25 25 23 26 27 27 26 26 25 26 26 26 26 25 25 24 24 24
8 8 9 9 9 8 9 9 9 9 9 10 10 10 11 12 17 19 18 17 17 18 21 23 24 24 26 26 27 26 27 25 27 26 26 26 25 23 24 24 26 25 25 25 25 25 25 25 25 24 24 24 24 24
8 8 8 8 8 8 9 9 9 9 9 9 10 14 18 19 17 17 17 19 19 21 22 22 26 19 22 26 26 26 26 25 24 25 27 24 23 25 25 24 25 25 25 25 24 24 24 24 23 22 23 22 23 23
8 8 8 8 8 8 8 8 9 9 9 10 15 18 16 16 18 19 20 19 20 21 22 23 25 22 19 24 24 25 23 24 23 23 24 23 22 24 24 25 25 24 25 25 25 24 23 23 20 21 22 22 22 22
8 8 8 8 8 8 8 8 9 9 11 11 11 13 16 19 19 19 20 21 22 22 24 24 24 22 16 25 24 23 21 24 22 26 23 21 24 24 23 24 23 24 24 24 24 23 23 22 22 21 20 21 21 21
8 8 8 8 8 8 8 8 8 9 10 11 12 15 16 18 15 17 18 20 22 24 25 24 25 24 23 25 23 23 20 22 26 23 22 22 24 23 23 23 23 23 23 24 23 23 22 21 21 21 21 20 20 20
8 8 8 8 8 8 8 8 8 9 10 12 13 11 16 17 18 21 22 22 24 25 24 24 24 23 24 24 24 23 24 25 22 21 23 25 23 23 23 23 23 22 23 23 23 21 21 21 20 20 20 19 19 18
8 8 8 8 9 9 9 8 8 9 9 12 12 13 16 19 20 21 23 23 22 25 24 23 24 24 20 23 23 23 23 22 23 24 25 22 22 22 22 22 22 22 22 22 20 20 19 19 19 19 18 18 17 17
8 8 8 8 9 9 9 8 8 9 9 11 12 14 18 18 19 21 22 22 22 22 23 22 21 20 16 16 22 22 22 22 24 25 24 22 22 21 22 22 22 22 21 20 19 19 19 18 18 17 17 17 16 16
8 8 8 8 9 9 10 10 9 10 11 11 16 16 17 17 19 20 22 22 19 19 19 18 16 17 17 19 23 24 23 25 26 22 22 22 21 21 21 22 21 20 20 19 19 18 18 18 18 17 17 16 16 15
7 8 8 8 9 9 11 11 15 16 16 17 17 20 20 22 21 21 21 16 15 21 20 20 20 20 21 22 22 25 26 25 17 20 23 21 21 21 21 21 21 20 19 19 19 19 18 18 17 17 16 16 16 16
8 8 8 8 9 9 13 15 16 16 19 20 21 23 23 23 21 22 23 22 18 16 18 18 15 17 21 23 24 22 23 25 25 24 22 21 20 20 21 21 20 20 20 19 18 18 18 17 17 18 17 16 16 17
7 7 7 8 8 9 10 12 12 15 17 20 22 22 22 23 24 24 24 24 20 14 14 17 18 19 18 15 17 22 24 25 24 23 22 22 20 20 20 20 20 19 19 18 18 18 18 17 17 18 17 17 17 17
7 7 7 8 9 12 13 15 15 17 19 19 21 21 20 22 23 23 24 24 24 23 22 22 23 24 19 16 17 22 25 25 25 24 23 22 19 19 19 19 19 19 19 18 18 18 17 18 18 18 16 16 16 16
8 8 8 8 9 13 16 17 17 18 19 19 20 19 19 19 20 21 23 22 23 23 24 24 25 25 23 17 18 23 24 24 23 23 21 20 19 19 18 19 20 20 20 19 19 19 18 18 18 18 17 17 16 17
9 9 10 13 14 13 13 18 16 18 17 19 20 20 20 20 21 22 19 22 23 23 23 24 24 23 23 24 23 24 23 23 23 24 22 21 20 19 20 19 21 20 20 20 19 19 18 18 17 18 17 17 17 17
10 11 13 14 14 14 17 16 17 18 18 19 19 19 19 19 21 19 19 22 23 24 23 22 24 24 24 23 24 23 21 22 23 23 21 20 19 19 20 21 21 21 20 20 19 19 18 17 17 17 17 17 17 17
10 11 13 10 16 16 18 19 18 18 18 18 19 19 19 19 19 20 21 23 19 22 20 21 19 21 24 22 22 24 23 22 24 22 21 20 20 21 21 21 21 21 20 20 19 19 18 17 16 16 16 17 17 17
10 14 11 16 17 17 18 18 19 19 19 19 19 19 19 19 20 21 19 17 15 19 19 20 19 18 19 20 21 23 21 23 23 23 22 21 21 21 21 21 20 21 20 20 19 19 18 17 17 16 16 15 16 16
12 16 16 19 17 18 19 19 17 17 17 17 18 18 19 19 19 17 15 15 18 23 24 24 24 19 21 20 21 21 22 22 22 22 21 21 21 22 21 21 20 21 20 19 19 18 18 17 17 16 17 17 17 16
16 17 16 18 17 19 18 18 16 15 16 16 16 17 17 16 15 13 13 14 20 23 23 24 24 23 22 22 21 20 21 21 20 20 20 20 20 20 19 20 20 20 19 18 18 18 17 17 17 17 17 17 17 17
17 19 19 18 18 18 19 17 14 13 12 13 14 15 14 15 16 17 21 22 22 23 17 16 20 23 22 22 21 22 21 21 20 18 19 19 19 18 19 19 18 18 18 17 17 17 17 17 17 17 17 17 17 17
17 19 19 18 18 18 20 16 13 13 15 16 16 14 14 18 21 20 20 21 22 22 21 22 21 21 22 21 21 22 22 21 21 21 19 16 14 15 16 18 19 18 18 18 17 16 16 16 16 16 16 17 17 17
18 18 18 18 18 21 22 22 20 18 15 14 13 15 18 18 18 19 19 19 21 21 20 20 20 18 17 18 20 18 19 20 19 19 19 20 19 18 20 19 19 19 18 18 17 17 16 16 16 16 16 17 17 17
18 17 17 18 19 21 22 22 23 22 19 20 21 22 21 19 17 18 18 18 19 19 17 17 17 16 15 16 16 17 16 16 17 16 17 18 19 19 19 18 19 18 18 18 18 18 17 16 16 16 16 17 17 17
18 18 18 18 18 20 22 22 21 19 19 19 20 20 19 20 18 19 18 18 17 17 16 15 14 13 13 13 13 14 14 15 15 16 16 16 16 16 17 18 18 18 18 18 18 17 18 18 18 18 17 17 17 17

GFSWCAN_925_temp_105.txt.gz
Temp
11 11 11 10 10 9 8 8 8 8 9 9 9 9 9 10 10 10 15 18 18 19 21 24 24 25 26 25 24 25 25 25 23 23 19 19 16 15 17 19 22 21 17 18 16 16 19 24 24 24 23 25 24 19
10 10 10 10 9 9 8 8 8 8 9 10 10 9 9 9 9 10 12 18 18 18 20 21 23 25 29 28 25 25 24 24 24 23 22 23 22 16 17 20 21 22 23 21 18 17 17 22 23 25 23 23 24 23
10 10 10 9 9 9 9 8 8 9 9 10 10 9 9 9 10 10 12 15 18 19 20 22 24 27 28 28 28 24 23 25 24 24 23 23 23 23 22 21 24 25 25 19 21 22 22 24 24 23 23 23 24 23
10 10 10 9 9 9 9 9 8 9 9 9 9 9 9 9 10 10 11 15 15 18 19 23 27 26 27 27 28 28 27 27 25 23 22 22 23 24 23 24 22 23 25 24 21 22 23 24 24 23 23 24 24 23
9 9 10 9 9 9 9 9 9 9 9 9 9 9 9 9 10 12 12 16 16 17 18 19 22 26 27 28 27 27 27 25 23 22 22 22 23 23 23 22 22 24 23 21 20 21 20 22 22 23 23 25 23 22
9 9 9 9 10 10 10 9 9 9 9 9 9 9 9 10 11 12 15 18 18 17 18 20 24 27 27 27 27 27 25 23 23 22 22 23 24 22 22 21 23 25 24 23 22 23 23 23 23 24 23 23 23 21
9 9 9 9 9 9 9 9 9 10 9 9 9 9 10 10 11 13 15 16 17 16 19 20 22 23 26 26 24 24 25 23 23 22 23 23 22 22 21 20 23 25 23 23 22 23 24 23 22 23 23 23 24 23
8 8 8 9 9 9 9 9 9 9 9 9 9 10 10 11 13 13 17 18 17 17 19 18 21 20 22 23 22 22 22 22 22 22 22 22 21 22 20 22 23 25 23 23 23 25 24 24 22 23 24 22 22 22
7 8 8 8 9 9 9 9 9 9 9 9 9 10 11 12 14 18 18 18 17 17 18 20 21 20 23 22 22 22 22 21 22 21 22 22 21 19 22 23 23 23 24 23 23 24 25 24 21 21 21 22 23 21
7 7 8 8 9 9 9 9 9 9 9 9 10 12 15 17 17 17 17 17 17 18 18 18 21 20 19 20 22 22 22 22 21 21 23 20 20 22 21 22 23 23 23 24 22 22 23 22 20 21 20 19 19 19
7 7 8 8 8 8 8 8 8 9 10 10 13 15 16 17 17 18 18 17 18 18 18 19 20 18 17 19 20 18 21 22 21 21 22 20 19 21 22 22 21 23 24 24 23 20 20 19 18 19 19 20 20 20
7 7 8 8 8 8 8 7 8 9 9 10 10 12 14 17 17 18 17 19 19 19 19 20 20 19 17 18 20 17 19 21 21 23 21 18 20 21 21 22 23 21 23 23 22 21 20 20 20 19 19 20 19 19
7 8 8 8 8 8 8 8 8 9 10 11 11 12 14 16 13 16 17 18 19 21 21 20 20 16 15 15 17 18 17 17 18 22 20 17 21 20 20 20 21 23 23 23 21 21 20 20 20 20 19 18 18 17
7 8 8 8 8 8 8 8 8 8 9 11 13 11 13 15 17 18 19 20 21 22 21 20 20 19 16 15 17 19 20 18 21 19 21 21 20 19 19 20 20 21 22 20 19 19 18 18 18 19 19 18 18 17
7 7 8 8 9 9 8 8 8 8 9 11 12 12 16 18 19 19 20 18 20 22 21 21 22 21 17 20 21 22 22 22 22 21 21 20 19 19 19 20 19 20 20 18 19 18 18 18 18 17 18 17 16 16
7 8 9 9 9 9 9 8 8 8 9 10 12 14 16 17 18 19 20 18 21 21 20 21 20 19 17 17 18 21 22 22 22 21 20 19 18 18 18 19 19 20 18 19 18 18 18 17 16 17 17 16 16 16
7 8 9 9 9 9 9 8 8 9 11 11 13 15 15 16 16 16 19 18 17 17 17 18 19 18 17 17 17 20 21 22 21 20 18 19 18 18 19 19 18 19 18 18 17 17 17 17 17 17 16 16 15 15
7 8 8 8 8 8 9 9 11 12 13 14 14 16 16 16 17 15 17 17 16 14 13 16 17 17 17 17 19 20 22 18 19 18 18 18 18 18 20 17 18 18 18 17 17 17 18 17 16 16 16 16 15 15
8 8 8 8 8 9 11 13 15 15 17 18 17 18 19 18 18 20 18 15 14 14 14 15 17 18 16 19 18 19 17 18 17 16 17 18 19 19 19 18 18 18 17 17 17 17 17 17 17 17 16 16 15 15
7 7 7 8 8 9 10 13 13 15 16 18 19 19 19 20 21 20 20 16 15 15 14 15 17 18 19 16 17 17 17 15 16 15 16 17 19 19 20 19 19 19 18 18 18 18 17 17 17 17 16 16 15 16
7 7 7 7 8 9 11 13 15 16 17 18 19 19 20 21 20 20 21 15 15 19 15 15 17 18 15 15 16 16 15 17 16 19 18 19 19 19 19 19 19 19 18 17 17 17 16 16 16 16 16 16 16 16
8 8 8 8 8 10 14 15 16 16 16 18 19 19 19 19 19 20 21 21 21 21 20 19 18 17 16 16 17 16 17 17 20 21 21 20 19 18 18 18 18 18 18 18 17 17 17 17 17 16 16 16 16 16
8 8 8 10 11 11 11 16 16 17 17 19 19 19 19 18 19 20 19 20 21 21 21 22 21 18 17 17 17 16 18 16 20 21 19 20 19 19 19 18 19 18 18 18 18 18 17 18 18 17 16 16 16 15
9 9 12 13 13 12 17 16 16 17 18 18 19 19 19 19 20 18 19 20 21 21 21 20 21 21 21 20 20 20 20 22 22 22 21 21 19 19 19 19 19 20 20 20 19 18 17 17 17 17 17 17 17 15
9 10 11 8 14 15 16 17 17 17 17 18 18 19 18 18 17 17 19 21 20 21 18 17 19 21 21 21 21 22 22 22 22 20 21 21 20 18 18 19 20 20 20 20 19 18 17 17 17 17 17 17 16 16
9 13 10 15 17 16 17 17 18 18 19 19 18 18 18 17 18 19 17 15 17 19 19 21 20 18 19 19 15 17 19 21 22 20 20 20 20 19 18 19 18 20 21 20 19 18 17 17 16 16 16 16 16 17
11 14 16 17 17 17 15 18 17 17 18 17 17 18 18 18 18 16 15 14 13 16 16 16 18 19 20 20 20 21 21 21 20 19 19 21 20 20 20 20 20 20 20 20 19 19 18 17 16 16 16 16 16 16
14 16 16 17 17 18 17 18 17 17 17 17 17 18 18 17 15 14 14 15 14 13 15 19 20 20 20 22 21 21 21 21 21 21 20 21 21 20 20 20 20 20 20 19 19 18 18 17 17 16 16 16 16 16
16 18 17 17 18 18 17 15 15 15 15 16 16 16 14 14 13 12 13 16 16 15 15 15 17 18 20 22 22 21 21 20 20 17 18 17 15 15 18 18 18 18 18 19 18 18 18 17 17 17 17 17 17 17
17 18 18 18 18 18 15 14 13 13 12 14 13 13 12 12 14 16 17 19 20 19 17 17 17 17 17 17 20 20 20 20 20 16 15 13 12 14 15 16 16 17 17 18 17 17 17 17 17 17 17 16 17 17
18 18 18 19 19 19 19 17 16 17 15 15 13 13 13 15 17 18 19 19 19 18 18 19 17 16 16 15 16 18 16 16 17 17 17 17 15 14 14 15 15 15 17 17 17 16 16 16 16 16 16 16 16 16
18 18 18 18 19 21 21 21 20 17 15 14 14 12 15 17 16 18 18 18 18 17 16 16 16 15 15 14 14 14 15 15 15 15 16 16 17 16 17 16 17 18 18 18 17 17 17 16 16 16 16 16 16 16
18 19 19 19 19 20 21 21 20 17 16 17 18 19 19 19 17 18 18 17 16 16 15 15 14 13 14 14 14 13 14 14 15 15 16 17 16 17 19 19 18 18 18 18 18 18 17 17 16 16 16 16 16 16

GFSWCAN_925_temp_108.txt.gz
Temp
11 11 11 11 11 10 9 9 8 8 8 9 9 9 9 9 9 9 13 14 14 14 16 21 21 20 19 20 20 21 21 20 17 18 18 16 15 14 16 17 19 18 16 16 14 17 20 21 21 21 21 21 19 18
11 10 10 10 10 10 9 9 8 8 8 9 9 10 10 9 9 9 11 14 14 13 15 20 21 22 22 21 20 19 20 20 18 17 17 15 16 14 14 18 18 19 17 16 16 16 17 19 22 21 20 19 19 18
10 10 10 10 10 9 9 9 9 9 8 9 9 10 9 9 9 9 10 13 15 14 16 17 20 26 25 25 27 20 18 20 21 17 17 17 21 15 16 17 22 21 19 18 19 21 21 21 20 19 19 21 20 18
10 10 10 10 10 9 9 9 8 8 9 9 9 9 9 9 9 9 9 12 13 13 15 17 22 23 26 26 27 27 23 22 19 17 17 17 19 18 18 19 18 19 21 18 18 21 21 22 21 21 21 21 21 20
9 9 9 9 9 9 9 9 9 9 9 9 9 9 9 9 9 9 10 13 14 14 14 16 19 24 26 26 26 26 24 19 18 19 18 19 17 19 16 17 19 19 20 17 17 19 18 20 20 21 21 20 19 19
8 9 9 9 9 9 9 9 9 9 9 9 9 9 9 9 9 11 10 14 14 13 13 16 18 20 24 25 25 23 20 19 17 18 17 16 19 17 17 17 18 20 19 18 19 19 19 20 20 22 20 19 20 19
8 9 8 8 9 9 9 9 9 9 9 9 9 9 9 9 9 11 13 14 15 14 14 16 16 20 23 22 20 19 21 19 18 17 18 17 19 16 15 17 20 21 20 20 19 20 21 21 20 20 20 21 21 21
8 8 8 8 8 9 9 9 9 9 9 9 9 10 10 9 11 12 17 17 15 14 14 15 16 18 21 19 20 17 19 17 18 18 16 17 16 16 18 18 20 21 19 20 20 20 20 19 19 19 20 20 19 18
8 8 7 8 8 9 8 9 9 9 9 9 9 10 10 10 10 15 17 18 17 16 14 14 17 18 18 18 17 18 16 18 16 18 17 17 15 17 18 18 21 19 20 19 20 21 19 19 18 18 19 18 17 16
7 7 7 8 8 8 8 8 9 9 9 9 9 9 9 14 16 16 16 13 13 13 12 14 16 16 17 17 18 18 16 17 17 17 16 17 16 17 17 18 19 19 19 18 19 20 20 17 17 18 17 18 18 17
7 7 7 8 8 8 8 8 8 9 9 9 10 10 14 15 16 13 14 14 14 15 13 15 16 16 14 16 17 16 18 17 17 18 18 16 16 17 18 18 18 19 19 20 19 19 18 17 16 16 16 17 17 16
7 7 7 8 8 8 8 8 8 9 9 9 9 10 12 14 13 15 13 15 15 16 16 16 15 16 14 14 15 15 16 15 18 14 18 15 15 17 17 19 18 18 18 18 20 18 17 18 18 17 16 16 17 17
7 7 7 8 8 8 8 8 8 8 9 10 10 12 13 13 11 13 14 15 16 17 17 16 16 14 13 13 14 14 16 15 15 16 17 14 15 17 17 17 18 18 20 19 18 18 18 18 18 17 15 16 16 15
7 7 8 8 8 8 8 8 8 8 9 10 12 11 11 12 13 14 15 16 16 17 16 16 15 15 13 14 14 17 16 15 16 16 17 16 16 16 16 17 18 18 18 18 17 17 16 16 15 15 15 15 15 15
7 7 8 8 8 8 8 8 8 8 9 11 11 11 12 13 14 15 14 15 15 15 17 17 16 15 15 14 15 16 16 17 17 18 17 16 15 15 16 16 16 16 15 15 16 16 16 16 15 14 16 16 15 15
7 7 9 9 8 8 8 8 8 8 9 10 11 12 12 13 14 15 15 14 14 15 16 16 16 15 15 15 16 17 19 19 19 17 15 15 15 14 15 15 15 15 15 15 16 16 16 15 15 14 15 16 15 15
7 8 9 8 8 8 8 8 8 9 10 11 10 11 12 13 13 14 15 15 13 14 15 15 17 16 14 15 16 16 18 17 17 16 15 15 16 15 14 14 15 16 15 15 15 15 15 15 15 14 13 14 15 15
7 8 8 8 8 8 8 8 9 11 11 11 10 11 12 13 14 14 14 14 13 12 13 15 13 15 15 16 16 15 15 14 15 15 15 15 15 14 15 14 16 16 15 15 16 15 15 15 13 13 14 15 15 14
8 8 8 7 8 8 9 10 10 11 12 13 12 13 14 14 14 15 14 13 13 13 12 12 14 14 13 12 13 14 13 13 14 14 14 15 16 15 15 15 15 15 15 15 15 14 14 15 14 14 14 15 14 15
7 7 7 8 8 9 10 11 13 11 12 13 14 14 14 14 16 16 13 12 13 13 13 13 13 14 14 13 14 15 15 13 14 14 13 14 16 16 15 15 15 15 15 15 15 16 15 14 15 15 15 15 15 14
7 7 7 7 9 9 9 11 12 11 12 13 14 15 16 15 15 15 13 13 14 14 14 13 12 13 13 14 16 14 13 13 14 15 14 14 15 16 15 16 16 16 15 14 13 13 15 15 16 15 16 16 15 15
8 7 7 7 8 10 10 12 11 13 14 13 13 14 15 15 15 15 13 14 15 15 13 13 13 14 14 14 13 15 15 16 15 14 14 15 14 14 13 16 16 16 16 15 14 14 15 17 16 16 16 16 15 16
7 8 8 8 9 9 9 13 13 14 14 15 15 16 15 15 14 14 15 14 15 15 15 15 15 16 15 17 15 16 16 16 13 13 14 14 16 17 16 17 17 16 16 15 17 17 16 17 16 16 16 16 16 15
8 9 10 10 9 9 12 13 13 13 15 14 15 17 17 14 14 15 16 15 15 15 16 16 14 14 14 14 13 13 15 16 15 16 17 16 14 15 16 16 17 17 16 16 16 17 17 16 16 16 16 16 16 16
9 9 8 7 11 12 14 15 15 14 15 15 16 16 15 14 15 15 15 15 13 14 14 13 15 15 15 14 14 16 19 17 15 16 17 17 17 16 16 17 17 18 18 17 15 15 16 16 16 15 15 15 14 14
8 10 9 14 13 13 14 16 15 15 16 17 16 15 14 15 17 17 15 13 13 14 13 12 12 14 15 15 13 12 16 19 17 14 16 18 17 17 16 15 15 16 19 18 16 15 15 15 16 16 15 16 16 15
9 12 12 12 13 15 13 14 14 14 16 15 14 15 16 17 17 14 13 12 13 13 13 13 13 13 14 16 18 19 19 20 20 18 20 18 18 18 16 16 16 18 19 18 18 17 16 16 15 15 16 16 16 16
11 12 14 14 14 13 15 15 16 15 15 14 14 16 16 15 14 12 12 14 13 13 13 16 16 15 17 19 19 19 19 19 18 18 18 17 17 16 16 18 19 20 19 18 18 17 17 16 16 16 16 16 16 16
12 14 15 14 15 15 14 14 14 12 12 12 13 14 12 12 12 12 13 14 14 14 13 13 15 17 17 19 20 20 20 18 16 14 14 13 13 14 16 18 19 19 19 18 18 18 17 16 16 16 16 16 16 16
14 15 14 16 17 14 13 12 12 12 12 13 13 12 12 12 13 16 14 14 14 13 15 15 15 15 14 15 15 15 16 18 18 15 12 11 12 16 17 17 16 16 15 15 14 13 15 16 16 16 16 16 16 16
14 16 16 17 16 15 14 14 14 14 13 12 12 12 12 12 15 17 17 17 16 16 15 14 13 13 13 12 14 14 13 15 15 16 16 15 15 15 15 15 15 14 14 13 13 12 15 17 16 16 16 16 16 16
15 16 16 16 16 17 17 15 15 13 13 13 13 12 13 13 14 14 16 16 15 14 14 14 13 12 13 13 14 14 15 15 16 16 16 17 17 16 15 15 14 14 14 14 14 17 16 16 16 16 16 16 16 16
14 15 15 16 16 18 17 17 16 14 14 15 15 14 15 15 15 14 16 16 15 15 14 14 14 14 14 14 14 14 15 15 15 15 15 15 15 15 15 14 14 15 15 15 15 16 16 16 16 16 16 16 16 16

GFSWCAN_925_temp_111.txt.gz
Temp
10 11 11 10 10 10 10 9 9 8 8 8 8 9 9 9 10 9 10 10 11 10 12 17 20 20 19 18 19 20 20 19 16 17 17 15 15 14 16 17 19 18 16 15 13 17 19 20 21 21 19 19 19 18
9 9 10 10 10 9 9 9 9 8 8 8 8 9 9 9 10 9 9 11 11 10 13 17 18 19 20 20 19 17 20 18 17 16 15 13 15 13 14 18 17 18 16 16 16 16 16 16 19 20 18 18 18 18
9 10 10 10 9 10 9 9 9 8 8 8 8 9 10 9 9 9 9 10 11 10 14 14 18 23 22 20 22 20 17 18 17 16 14 15 18 13 15 15 19 19 17 17 18 18 20 18 18 19 21 20 18 18
8 8 9 9 9 9 9 9 9 9 9 9 9 9 9 9 9 9 9 10 10 10 12 14 19 20 22 22 23 23 21 19 16 15 15 15 18 15 15 18 17 18 18 17 17 19 19 20 20 19 19 18 19 18
7 8 8 8 8 9 9 9 9 9 9 9 9 9 9 9 9 9 9 10 11 11 12 13 17 23 24 24 24 24 21 18 17 18 17 18 15 16 14 15 18 17 17 17 17 17 18 19 20 19 18 18 18 18
7 7 8 8 8 8 9 9 8 9 9 9 9 9 8 9 9 9 9 12 12 11 11 14 16 18 22 23 23 20 18 15 15 17 16 15 15 16 16 16 17 17 16 17 20 17 18 19 19 20 18 18 18 17
6 8 8 8 8 8 9 9 9 9 9 9 9 9 9 9 9 9 11 11 10 12 12 14 14 17 20 20 18 18 17 15 16 15 17 17 17 14 14 17 19 18 19 19 17 18 19 20 19 19 19 18 19 18
7 8 8 8 8 8 9 8 8 9 9 9 9 9 9 9 9 11 15 13 12 12 12 14 14 16 19 18 19 15 16 15 16 15 14 16 15 13 17 17 18 20 19 19 19 20 18 17 17 17 18 18 16 15
7 8 8 7 7 8 8 8 9 9 9 8 9 9 9 9 9 14 16 16 15 14 13 12 14 16 16 16 16 16 15 17 14 17 16 16 14 17 18 17 18 17 19 19 18 17 17 17 17 16 16 16 15 15
8 8 7 7 7 8 8 8 8 8 9 9 9 9 9 11 14 14 15 12 12 12 11 13 13 15 15 16 16 16 15 17 17 16 14 16 15 15 16 17 17 17 18 17 18 18 17 17 16 16 16 16 16 15
7 7 7 7 7 8 8 8 8 9 9 9 9 9 13 13 14 12 13 13 13 14 11 13 14 16 14 16 16 14 16 15 17 16 17 14 15 16 17 16 16 17 16 17 19 18 17 17 15 15 15 16 17 16
7 7 7 7 8 8 8 8 8 8 9 9 9 10 10 12 11 14 13 13 13 14 13 15 15 15 14 13 15 14 15 15 18 14 16 14 15 16 16 17 16 16 17 18 19 17 17 16 16 16 15 15 16 15
6 7 7 7 8 8 8 8 8 8 9 9 10 11 11 12 11 13 13 13 13 15 14 14 14 13 13 13 13 14 15 15 14 16 16 14 15 16 15 16 17 16 17 18 17 18 17 16 16 16 14 15 15 14
6 7 7 7 8 8 8 8 8 8 9 10 12 10 11 12 12 12 12 13 14 14 15 14 13 13 12 15 14 17 15 15 16 15 17 16 15 15 14 15 16 16 16 16 15 15 15 15 14 15 15 15 14 13
7 7 7 8 8 8 8 8 8 8 9 11 11 11 12 11 11 12 12 13 13 13 12 13 14 14 13 15 14 15 16 16 16 17 17 14 15 14 14 15 15 15 15 14 14 14 14 14 14 13 14 14 14 14
7 7 8 8 8 8 8 8 8 8 9 10 10 11 11 11 12 12 13 13 13 12 12 14 15 15 16 14 15 16 17 16 18 15 14 13 14 13 14 14 15 14 14 14 14 14 14 14 13 13 14 14 14 14
6 7 8 8 8 8 8 8 7 9 10 11 11 9 10 11 11 11 12 13 12 13 14 14 15 15 14 15 15 15 16 16 14 14 14 13 13 13 13 13 13 13 13 14 14 14 14 14 13 13 12 13 14 15
7 8 8 8 8 7 7 7 9 10 11 10 9 10 11 12 12 12 13 12 13 13 13 14 13 13 15 16 15 14 13 12 12 13 13 13 12 12 14 13 14 14 13 14 14 13 13 13 13 13 13 13 14 14
7 8 8 7 8 8 8 9 9 11 12 10 10 10 11 12 12 14 13 12 12 12 12 12 14 14 13 12 13 13 12 12 13 13 13 13 13 13 14 14 14 14 13 13 13 13 13 14 14 13 13 13 12 13
7 7 7 7 8 8 9 10 11 10 11 11 12 13 13 13 14 14 14 13 12 12 13 13 13 13 12 12 12 12 13 12 12 14 14 13 14 13 13 13 13 14 13 13 13 13 12 12 13 13 13 13 13 13
7 7 7 7 8 8 9 10 11 10 11 11 13 14 15 13 14 13 12 11 12 12 13 12 12 12 11 12 13 13 12 12 12 13 14 14 13 13 13 14 14 13 13 12 13 12 13 12 13 14 14 14 15 15
7 7 7 7 8 9 9 10 10 11 12 12 12 12 14 14 14 13 11 13 12 12 12 13 14 14 12 13 13 14 17 15 14 14 15 15 13 12 12 13 13 12 13 14 14 12 13 15 15 15 14 15 15 15
7 8 8 8 9 9 9 10 11 12 12 13 14 14 14 13 13 12 13 12 13 13 14 13 13 14 13 15 15 16 16 14 12 12 12 13 14 15 15 15 15 14 13 14 14 14 13 15 15 15 14 15 14 14
8 8 9 10 9 9 10 11 10 12 12 13 14 16 15 13 12 13 15 13 12 12 12 13 13 12 11 12 12 12 14 14 13 14 14 14 13 14 16 15 15 15 16 15 15 14 14 15 15 15 15 14 13 14
9 9 9 8 10 11 12 14 13 13 14 14 15 14 14 12 14 14 15 13 12 12 11 11 11 12 13 12 12 13 15 15 12 12 15 15 16 14 14 15 15 16 16 14 13 14 15 15 15 14 14 14 13 14
8 9 9 12 12 12 13 14 14 14 14 15 14 13 12 14 15 15 14 13 12 12 12 11 12 11 13 13 12 12 14 17 15 13 15 17 16 15 13 13 13 14 16 16 15 14 14 15 14 13 13 14 14 14
8 10 10 9 12 13 12 13 13 13 14 14 13 14 15 16 16 14 12 11 12 12 12 12 12 11 11 12 16 17 18 16 16 16 18 18 18 17 16 14 13 15 15 15 16 16 14 14 14 14 14 13 13 14
9 10 12 13 12 12 14 14 14 14 13 12 13 15 15 13 13 12 11 13 13 13 13 14 14 14 13 15 16 17 16 16 16 16 15 15 15 16 16 17 17 16 16 16 17 17 16 15 15 14 14 14 14 15
10 12 13 13 14 14 13 13 13 12 11 11 12 13 12 12 12 12 13 14 13 12 13 12 14 15 16 16 16 17 17 16 14 14 13 12 12 14 14 15 15 16 15 15 15 15 14 14 14 15 15 15 16 16
11 11 13 14 14 13 12 12 12 12 12 12 12 12 12 12 14 15 14 14 13 12 13 13 13 13 12 13 13 13 15 16 17 15 11 11 12 13 14 15 15 14 14 13 12 12 13 12 13 13 14 15 15 15
12 13 13 13 14 13 13 12 12 12 12 12 12 12 12 12 13 15 15 14 14 14 13 12 12 12 12 12 13 13 13 14 15 16 16 16 15 15 15 16 16 15 15 14 12 13 13 12 12 12 13 14 15 15
12 13 13 15 15 14 13 12 12 13 13 13 13 12 12 13 13 12 15 15 14 12 12 12 12 12 13 14 15 15 15 15 15 15 15 15 15 15 15 15 15 14 14 14 14 14 14 13 12 13 14 14 15 15
12 13 14 14 15 15 13 13 12 13 13 14 13 12 12 14 14 12 16 15 14 14 14 14 14 14 14 14 15 15 15 15 15 15 15 15 15 14 14 14 15 15 14 14 13 13 13 12 12 13 13 15 15 15

GFSWCAN_925_temp_114.txt.gz
Temp
9 9 9 9 10 10 10 9 9 8 8 8 9 9 9 9 9 9 9 9 9 9 10 15 18 18 18 17 19 18 20 19 15 16 16 14 15 14 16 16 18 17 16 15 13 17 19 19 20 20 20 18 18 17
8 8 9 9 10 10 9 9 9 9 8 9 9 9 9 9 9 9 9 9 9 8 10 14 16 17 18 19 17 16 18 17 16 15 14 12 14 12 14 17 16 17 16 15 15 15 16 16 18 19 17 18 18 17
7 8 8 9 9 9 9 9 9 8 9 9 9 9 9 9 9 9 9 9 9 8 10 12 15 19 20 19 19 17 16 16 16 14 13 14 18 12 15 15 17 17 15 16 17 18 19 18 18 19 19 18 17 17
6 7 8 8 8 8 8 9 9 9 8 9 9 9 9 9 9 9 9 9 9 8 11 13 17 18 21 20 19 20 19 17 13 13 14 14 17 13 14 16 16 16 16 15 16 18 18 19 19 19 18 17 17 17
6 6 7 8 8 8 8 8 9 8 8 9 9 9 9 9 9 9 9 9 9 10 11 11 14 20 21 21 21 20 18 16 16 17 16 17 13 14 12 14 16 15 17 17 16 17 17 18 20 19 18 18 17 18
6 6 7 7 8 8 8 8 9 9 9 10 9 9 9 8 8 9 8 10 9 9 9 12 14 16 20 20 21 19 16 14 14 16 16 13 13 15 16 16 17 16 15 16 19 16 17 18 18 19 18 18 18 17
6 6 6 7 8 8 8 8 8 9 9 9 9 9 9 9 9 8 10 9 9 10 10 12 13 16 18 19 17 17 15 14 16 14 16 15 15 13 13 16 19 17 16 17 17 17 18 18 18 19 18 18 18 17
6 6 7 7 8 8 8 8 8 8 9 9 9 9 9 9 9 9 13 11 9 11 11 12 13 15 17 17 20 14 17 14 14 14 13 15 13 12 17 17 17 19 18 18 16 17 18 16 16 16 17 17 16 15
7 7 7 8 8 8 8 8 8 9 9 9 8 8 9 9 8 12 13 13 11 11 12 11 13 15 14 14 15 15 16 18 13 16 16 15 13 16 17 17 18 17 18 18 17 16 16 16 15 15 16 16 15 14
7 7 7 8 8 7 7 8 8 8 8 8 8 8 8 10 11 12 12 10 9 10 10 12 12 14 14 14 14 15 14 15 17 16 13 15 14 15 15 16 16 16 16 15 16 16 15 14 15 15 16 15 16 14
7 7 8 7 7 8 7 8 8 8 8 8 8 8 12 12 12 11 12 12 12 13 10 12 14 15 13 16 15 13 15 14 17 16 16 14 13 15 17 15 15 15 15 16 19 18 17 17 15 14 14 14 15 14
7 7 7 7 7 7 7 8 8 8 8 8 8 9 10 11 11 13 12 12 12 13 12 13 14 14 13 13 14 13 14 14 17 13 15 14 14 15 15 17 16 15 15 16 18 16 16 16 16 15 15 14 15 14
7 6 7 7 7 7 7 8 8 8 8 9 9 11 11 12 11 13 13 12 12 13 13 13 14 13 12 12 13 14 14 15 13 14 15 14 15 15 14 15 16 14 16 17 17 18 17 16 16 15 14 15 14 13
6 6 7 7 7 7 7 7 8 8 8 9 11 10 11 12 11 12 12 12 12 12 13 12 12 13 11 14 13 15 15 14 15 15 17 17 16 16 14 14 15 15 15 16 16 15 14 14 14 15 15 15 14 13
6 6 7 7 8 8 8 8 8 8 8 10 11 11 12 11 11 11 11 11 12 11 11 13 12 12 13 14 13 14 14 15 15 16 16 15 15 15 14 13 15 15 14 14 13 13 13 13 13 13 14 14 14 13
6 6 7 8 8 8 8 8 8 8 8 10 10 11 11 11 11 11 11 12 11 11 12 12 14 14 15 13 15 15 16 16 17 15 15 13 13 13 13 13 14 15 14 13 13 13 13 13 13 12 13 13 13 14
6 7 8 8 8 8 8 8 8 9 10 11 11 10 10 9 9 10 10 11 11 12 14 14 15 15 13 14 15 15 16 16 14 15 13 13 13 13 12 13 12 13 12 12 13 13 13 13 12 12 11 12 13 14
7 7 8 8 8 7 8 7 9 10 11 11 9 11 8 9 10 10 10 11 11 12 12 14 13 13 14 15 15 15 14 13 12 12 12 12 12 12 12 12 12 13 12 12 13 12 11 12 12 13 12 12 13 13
7 8 8 7 8 8 8 8 8 10 11 10 9 9 9 10 9 10 11 11 11 12 12 11 13 14 14 12 13 14 12 12 13 13 12 12 12 12 12 13 12 12 12 12 11 12 12 13 14 12 12 12 12 12
7 7 8 7 8 8 9 9 9 9 10 11 11 12 10 11 12 12 13 12 12 12 12 12 13 14 13 12 12 13 13 12 12 13 13 12 12 12 12 13 12 12 12 12 12 12 11 12 12 12 12 12 11 11
7 7 7 7 8 8 8 10 9 10 9 10 12 11 12 12 13 13 12 11 12 13 12 11 12 12 10 11 12 12 11 11 12 13 13 13 12 13 12 13 13 12 11 11 11 11 13 13 12 13 13 12 14 14
7 7 7 7 8 8 8 10 10 10 9 10 10 12 13 13 13 12 11 12 12 12 11 13 14 15 13 13 12 13 14 13 13 12 13 13 12 12 12 11 11 11 11 12 13 12 13 14 12 12 12 14 15 15
7 7 8 8 9 8 9 9 10 10 11 12 13 13 13 12 12 11 12 11 12 11 11 11 12 13 12 14 14 14 14 13 11 12 12 13 14 14 14 13 13 12 11 12 14 13 13 13 14 13 13 13 14 13
7 8 9 9 9 9 9 10 9 10 11 12 13 15 14 13 11 12 14 12 11 10 11 11 10 11 11 12 12 12 14 14 13 13 13 13 12 13 14 14 14 15 15 14 14 14 14 13 13 13 13 12 12 12
9 9 9 8 10 10 10 12 12 11 13 13 14 14 13 11 14 13 14 12 11 12 11 11 10 11 11 11 11 12 14 14 11 12 14 14 14 13 13 14 14 14 15 15 13 13 13 12 13 12 12 12 12 12
8 9 8 11 11 10 12 13 14 14 13 14 13 12 12 13 15 14 14 13 12 11 11 11 12 11 11 11 12 12 13 15 14 12 14 15 15 14 13 12 12 13 14 15 13 13 13 13 12 12 12 13 13 13
8 10 9 8 10 12 12 12 12 12 13 14 13 14 14 16 15 14 12 11 11 12 12 12 11 11 11 11 13 14 15 15 15 15 15 15 15 15 16 13 12 15 16 14 14 13 13 12 12 13 13 13 13 14
9 9 11 11 11 11 13 13 13 13 12 11 12 14 15 14 13 12 11 13 13 13 13 14 13 12 12 12 13 14 15 15 14 14 14 14 15 14 14 14 15 15 15 15 15 14 14 13 13 13 13 13 13 14
9 10 11 12 13 13 13 12 12 12 10 10 12 12 12 11 12 12 12 13 12 12 12 11 13 14 14 13 14 14 14 14 13 14 14 12 12 13 14 14 15 15 15 14 14 14 13 13 13 13 13 12 13 14
11 11 13 14 12 12 12 12 12 12 11 11 11 11 12 12 13 13 13 13 12 11 11 11 11 12 11 12 12 12 13 14 14 14 13 12 12 13 13 14 14 14 14 14 13 12 12 12 11 11 11 12 12 13
11 11 12 12 12 13 13 12 12 12 12 12 12 12 12 12 13 14 13 13 12 12 12 11 11 11 12 12 12 12 12 14 15 15 15 14 14 14 15 15 14 13 13 12 12 11 11 10 10 11 10 10 12 13
10 12 12 14 13 12 12 12 12 12 13 13 12 12 12 13 13 11 14 14 13 11 11 12 11 11 12 13 13 13 14 14 15 15 15 16 15 15 14 14 13 13 13 12 12 12 11 11 11 12 12 12 13 12
11 11 12 13 12 13 12 12 12 13 13 13 13 12 12 13 14 12 15 15 14 13 13 13 14 14 14 14 14 14 14 14 14 15 15 15 14 14 14 14 14 14 13 13 13 12 12 12 12 12 12 12 12 13

GFSWCAN_925_temp_117.txt.gz
Temp
8 8 8 8 8 9 10 10 9 9 9 9 9 9 9 9 9 9 9 9 10 12 15 16 18 19 19 19 22 21 23 22 21 23 22 20 21 20 20 20 21 22 21 20 20 21 22 21 22 22 22 21 22 21
7 7 7 8 9 9 10 9 9 9 9 9 9 9 9 9 9 9 9 9 8 9 13 12 14 15 18 20 20 19 20 21 23 21 20 19 20 19 20 22 19 21 22 22 21 23 21 20 21 22 20 22 21 20
6 6 7 7 8 9 10 9 9 9 9 8 9 9 9 9 9 9 9 9 8 10 14 14 18 18 17 17 19 20 19 20 20 19 20 21 22 21 22 22 21 20 19 22 20 21 21 21 21 20 21 22 21 20
6 6 6 7 8 8 9 9 9 9 9 8 9 9 9 9 9 9 9 9 9 10 13 17 16 17 19 18 18 19 19 18 18 19 21 22 24 19 22 21 22 22 20 21 21 21 21 22 20 21 21 21 21 21
5 5 5 6 7 8 8 8 8 9 9 9 9 9 9 9 9 9 9 9 9 11 13 15 16 17 18 18 18 18 19 20 20 21 22 23 20 20 19 20 22 21 22 24 25 23 23 24 22 21 21 21 21 21
6 6 6 6 7 7 8 8 8 9 9 9 9 9 9 9 8 8 9 8 9 9 11 15 17 17 18 18 19 18 19 19 20 21 22 19 18 22 23 23 23 22 21 22 24 22 22 23 22 21 22 21 21 22
6 7 6 6 7 7 8 8 8 8 9 9 9 9 9 8 8 8 11 9 8 9 12 15 18 19 17 19 19 19 17 17 19 19 21 21 20 20 22 23 25 23 22 20 20 21 22 23 23 22 21 21 20 21
7 7 6 7 7 8 8 7 8 8 9 9 9 9 8 8 9 9 11 10 8 10 12 14 17 19 18 20 21 19 20 19 17 18 18 21 18 19 21 22 22 22 21 20 21 22 24 23 22 21 20 21 21 20
7 7 7 7 7 8 7 7 8 8 9 8 8 8 8 8 9 10 11 10 9 10 14 14 17 18 18 18 18 19 20 21 18 20 19 20 19 20 23 23 21 21 22 23 21 21 22 23 22 21 21 22 21 20
7 7 7 7 7 7 7 7 8 8 8 8 8 8 11 10 10 10 10 11 11 12 12 14 16 17 17 19 19 20 19 21 21 21 17 19 19 20 20 21 22 22 21 21 21 19 20 22 21 21 21 22 22 20
7 7 7 7 7 7 7 7 8 8 8 8 9 10 10 10 10 12 14 13 13 14 14 16 17 18 16 18 18 16 20 19 20 20 20 18 17 19 22 20 20 20 20 22 24 23 22 22 22 21 21 21 20 19
7 7 7 7 7 7 7 7 8 8 8 8 8 9 9 11 12 13 14 14 14 16 16 16 17 17 16 15 17 16 17 17 20 17 19 18 18 20 21 22 21 19 20 21 22 22 22 21 21 21 21 20 19 18
7 7 7 7 7 7 7 7 8 7 8 8 8 10 11 12 12 14 15 15 15 16 16 16 16 17 14 16 16 16 18 18 16 17 19 18 19 20 20 20 21 20 20 21 21 20 20 20 19 20 20 19 17 16
6 6 6 7 7 7 7 7 7 7 7 9 11 10 13 13 14 15 15 16 16 15 14 16 16 17 15 16 16 17 17 16 16 18 19 21 21 21 20 19 20 19 19 20 20 19 19 18 18 18 18 17 16 15
6 6 6 7 7 7 8 7 7 7 8 10 11 12 13 14 14 14 13 13 14 14 13 15 16 16 16 16 16 16 16 17 18 19 21 21 20 18 18 18 18 20 20 20 20 19 19 18 17 17 17 16 17 15
6 6 7 8 8 8 7 7 7 8 9 10 11 12 14 13 14 14 14 14 14 13 13 15 17 17 18 17 17 18 19 19 20 19 20 19 18 17 17 18 18 20 20 20 19 19 18 17 17 17 16 16 15 14
6 7 7 8 8 8 7 8 7 9 10 11 12 13 13 13 13 14 14 14 13 14 17 17 17 17 16 17 17 19 19 20 19 19 17 17 17 17 16 17 17 18 18 19 18 17 17 17 16 15 15 14 15 14
7 7 8 8 8 7 8 7 9 10 11 12 12 14 12 13 13 13 14 13 14 15 16 16 16 16 16 17 18 20 20 19 18 17 18 16 16 15 15 17 17 17 17 17 17 16 15 15 15 16 15 14 14 14
7 7 7 7 7 8 9 9 8 10 12 13 12 12 13 13 13 14 14 13 13 13 14 15 15 15 15 16 17 19 16 16 17 17 15 15 15 15 15 15 16 16 16 16 15 16 16 15 17 16 15 14 16 15
7 7 7 7 7 8 10 10 9 10 12 13 13 13 14 14 15 15 15 14 12 13 13 13 16 18 17 17 17 17 17 15 15 17 17 16 15 14 15 16 16 15 15 15 15 15 15 15 15 14 14 16 16 15
7 7 7 7 8 8 9 10 11 12 12 12 13 13 14 13 13 14 12 12 12 15 16 16 17 16 16 15 15 14 14 15 15 16 17 17 15 15 14 14 13 15 16 16 16 15 15 16 15 15 14 14 15 15
7 7 7 7 8 9 9 10 11 10 11 13 13 13 15 14 13 13 12 14 15 17 15 16 16 17 15 14 15 15 14 14 14 14 13 13 16 16 16 16 15 16 17 17 17 16 16 16 15 14 15 14 13 13
7 7 8 8 9 8 9 10 11 12 13 14 14 14 15 15 14 14 15 16 16 15 14 15 15 14 15 15 15 15 14 15 16 15 15 16 15 15 14 15 16 17 17 16 16 16 16 15 13 14 13 11 12 13
7 8 9 9 9 10 11 11 11 12 13 14 15 16 16 15 14 14 16 16 16 15 15 14 15 16 17 15 17 18 16 15 16 15 15 15 16 16 16 16 16 17 18 17 16 16 15 13 12 12 13 12 12 13
8 9 9 9 10 10 11 13 12 13 13 14 15 16 15 13 15 15 15 15 14 14 14 14 13 13 15 17 16 17 14 16 18 18 16 16 17 15 15 14 15 16 15 16 16 16 15 15 13 13 13 15 14 14
9 10 9 12 12 12 12 13 14 14 14 15 15 14 14 15 16 16 14 13 13 13 14 12 12 12 13 14 14 15 15 13 14 16 17 15 16 18 18 18 17 15 14 14 14 14 14 13 14 14 13 13 14 15
9 11 11 11 11 11 12 13 13 13 14 15 14 14 15 15 15 14 13 13 14 14 12 12 12 12 13 14 14 14 14 13 14 15 14 15 15 15 16 17 17 16 16 14 13 14 13 12 13 13 12 12 14 15
10 11 12 12 12 13 14 14 14 14 15 14 14 16 15 15 14 14 14 14 12 12 12 13 12 11 11 11 12 13 13 13 13 13 13 12 13 13 13 13 14 15 15 14 13 13 13 13 13 12 12 12 14 14
10 11 11 12 14 13 14 14 14 14 13 13 14 14 14 13 13 12 12 12 12 12 12 13 14 13 13 13 12 12 14 14 17 17 17 16 16 14 13 13 14 14 14 14 13 14 13 13 12 11 12 12 12 13
13 13 13 14 13 12 13 13 13 13 13 13 13 12 13 13 13 13 13 13 13 12 13 12 12 14 15 15 14 13 13 14 15 15 16 16 15 13 13 13 13 13 13 12 12 12 12 11 11 11 11 10 10 11
13 13 14 14 13 12 13 12 12 13 12 13 12 12 13 14 14 13 12 12 12 13 14 14 14 14 15 15 15 17 16 14 13 14 14 14 14 14 14 13 13 13 13 12 12 12 12 11 11 10 10 8 8 9
13 14 15 14 13 13 12 12 12 13 13 13 12 12 14 15 15 16 13 13 14 15 13 14 15 14 13 14 14 13 14 14 14 14 14 14 13 13 13 13 12 13 13 13 13 12 12 12 12 11 10 10 9 10
13 13 13 12 11 12 12 12 12 13 13 14 14 14 16 16 16 16 14 14 14 15 15 14 13 13 13 13 14 14 14 14 14 15 15 14 14 13 13 13 13 13 13 13 13 13 13 13 13 12 10 11 11 13

GFSWCAN_925_temp_123.txt.gz
Temp
6 7 7 7 8 8 9 9 9 9 9 9 9 9 9 9 9 9 12 11 13 16 20 20 21 21 23 25 25 28 27 28 28 28 29 28 28 28 27 28 28 28 27 27 27 25 24 28 28 27 26 27 24 25
6 6 6 6 6 7 8 8 9 9 9 9 9 9 9 9 9 9 10 12 11 11 17 15 16 18 20 21 22 25 27 27 29 29 29 29 28 29 27 27 28 26 28 23 27 25 27 28 27 28 27 27 28 25
5 5 5 6 6 6 7 8 8 9 9 9 9 9 9 9 9 9 10 11 11 13 18 18 19 19 20 20 21 22 26 27 29 28 29 29 27 30 28 29 26 28 28 28 27 26 28 28 28 28 27 27 27 27
6 6 6 6 6 6 6 7 8 8 8 8 9 9 9 9 9 9 9 10 12 13 17 23 23 23 22 22 21 22 23 24 27 28 29 29 28 30 29 28 28 22 27 28 28 28 28 27 28 27 27 26 26 27
6 6 6 7 7 7 6 7 8 8 8 8 9 9 9 9 9 9 10 10 11 12 13 19 21 22 23 22 22 22 22 24 26 27 28 28 30 29 30 29 29 29 28 28 26 28 25 26 27 27 26 27 27 27
6 6 7 7 7 7 6 7 8 8 8 8 9 9 9 9 9 9 12 11 10 10 12 19 24 23 23 23 23 23 23 25 25 27 28 29 28 29 28 28 29 30 30 29 29 29 28 28 28 27 27 26 26 26
6 6 6 7 7 7 7 7 8 8 8 8 9 9 9 9 9 11 12 10 10 10 12 19 23 24 23 24 24 25 24 25 25 26 27 26 28 27 28 28 29 30 30 29 29 29 28 28 27 28 27 27 25 26
6 6 6 7 7 7 7 7 8 8 8 8 9 9 9 9 9 11 12 10 10 10 14 19 22 24 24 24 24 26 25 25 25 24 25 26 27 28 27 28 29 29 30 29 29 29 29 29 28 27 27 27 25 24
5 6 6 7 7 7 7 7 8 8 8 8 9 9 9 9 10 13 11 10 10 10 16 20 21 20 24 25 25 25 26 24 26 24 25 25 25 26 27 27 27 28 28 28 29 29 30 29 27 27 27 27 27 24
5 6 6 7 7 7 7 8 8 8 8 8 8 9 11 12 12 11 10 12 11 12 17 19 22 20 23 24 24 25 25 24 21 25 26 23 25 27 27 27 27 27 28 29 28 28 28 28 28 27 27 27 27 27
5 6 7 7 7 7 7 8 7 8 8 9 10 10 12 11 13 16 15 17 18 17 20 21 22 21 24 21 23 22 19 20 21 25 25 24 24 25 27 27 27 27 28 29 29 29 29 28 28 27 27 27 27 26
6 7 7 7 7 7 8 7 7 8 10 9 9 10 12 12 14 15 16 19 20 20 22 22 22 23 22 24 19 18 20 22 22 26 24 24 26 26 26 26 27 28 28 28 29 29 29 29 29 28 27 27 26 25
7 7 7 7 7 7 7 8 8 8 8 8 9 10 13 15 13 16 18 19 20 22 22 21 21 23 23 23 20 18 17 20 23 22 23 24 25 26 26 26 27 28 28 28 28 28 28 28 28 28 27 26 26 25
7 7 7 7 7 7 7 7 7 7 7 9 11 13 14 15 18 20 20 20 21 22 21 22 22 22 23 23 20 18 20 21 22 23 24 26 25 25 26 27 27 27 28 28 28 28 28 28 27 27 27 26 25 24
6 6 6 7 7 7 7 7 7 7 8 10 11 12 14 19 19 21 21 21 21 22 20 20 21 22 22 22 22 20 18 18 23 24 26 26 26 26 26 26 26 27 27 27 27 27 27 27 27 26 26 26 25 23
6 6 6 7 7 7 7 7 7 7 8 10 11 14 17 18 18 19 20 20 21 18 18 19 19 21 20 22 21 21 21 22 23 25 25 25 24 24 24 25 25 26 27 27 27 27 27 27 26 26 25 25 24 23
6 7 7 7 7 7 7 8 8 9 10 11 15 17 18 17 18 19 19 19 18 17 17 17 18 20 21 21 21 23 23 24 24 25 24 23 22 22 23 23 24 24 25 26 26 26 26 26 26 25 25 24 24 22
6 7 7 7 7 7 7 7 8 10 12 15 16 17 19 20 19 20 20 20 17 17 18 18 20 19 20 21 22 23 23 23 24 23 24 23 23 22 22 22 23 23 24 25 26 25 25 25 25 25 24 24 23 22
7 7 7 7 7 8 10 10 9 12 15 17 18 18 19 20 20 20 20 19 19 17 17 18 19 19 20 21 21 22 24 21 21 23 24 24 23 22 22 22 22 22 23 24 25 25 25 25 25 25 24 23 24 22
7 7 7 7 8 8 11 13 12 14 16 16 18 18 18 19 19 20 20 20 16 15 16 17 20 20 20 20 15 17 22 21 23 23 21 24 24 22 22 22 24 23 23 23 24 24 25 24 24 25 25 24 24 23
7 7 7 7 7 8 11 13 14 15 16 16 17 17 17 18 19 19 18 18 18 19 19 21 22 19 19 21 21 22 22 22 23 23 21 20 23 23 23 22 22 24 25 25 25 25 24 25 25 25 24 23 23 23
7 7 8 7 8 10 13 15 15 15 15 16 17 18 17 17 17 17 17 17 19 21 21 21 20 21 17 19 21 21 21 21 21 21 20 20 23 24 24 23 23 23 25 25 25 25 24 25 25 25 24 23 23 23
7 7 8 8 9 12 13 15 14 15 14 16 17 17 17 16 17 16 16 19 20 21 19 20 21 20 21 21 21 21 21 20 22 23 23 23 23 23 23 23 23 24 25 24 24 24 24 24 23 23 22 21 23 23
7 8 10 12 13 10 13 13 15 15 16 17 17 18 18 17 18 17 18 19 19 20 19 19 19 21 22 22 23 22 23 22 23 23 23 23 21 22 23 23 23 24 24 24 24 24 24 23 22 21 22 22 23 22
8 9 8 9 12 12 13 15 16 16 17 18 18 19 18 18 18 18 18 17 17 18 18 18 19 20 21 22 24 23 22 23 24 21 23 24 22 20 24 23 23 24 23 23 23 23 23 22 21 22 23 23 22 22
8 10 9 11 12 13 15 16 16 17 17 18 18 19 18 18 19 18 17 16 18 18 18 17 18 20 20 22 21 21 20 22 22 24 23 23 23 23 22 22 24 23 23 22 22 21 21 23 22 22 22 22 21 22
10 11 12 12 12 14 15 15 16 16 17 17 18 19 18 18 18 17 18 18 18 18 15 15 18 20 20 21 21 21 21 21 21 22 22 22 22 23 23 22 19 20 21 19 19 19 17 17 18 18 17 19 20 19
13 14 13 12 12 12 15 16 17 17 18 19 19 18 17 17 16 17 18 18 19 18 17 15 17 19 19 19 20 22 22 21 21 21 21 21 21 21 20 21 19 17 19 18 18 18 18 19 19 18 18 16 15 15
14 16 14 13 14 16 17 17 17 17 17 17 18 17 18 18 19 18 18 18 18 18 20 19 20 20 20 21 21 21 22 22 22 22 20 18 17 19 19 19 19 19 19 18 16 16 16 16 15 14 13 13 13 12
15 17 16 17 17 16 16 16 16 17 18 18 19 19 19 19 19 19 18 19 20 21 20 21 21 20 20 20 20 18 19 20 21 22 22 22 21 21 20 20 20 20 19 18 17 16 14 14 14 14 14 15 14 14
18 18 18 17 14 16 16 17 17 17 16 17 16 16 19 20 19 19 19 19 20 19 19 20 21 21 19 19 20 20 20 19 19 19 19 21 21 20 20 19 20 19 19 19 19 19 19 18 18 16 15 14 14 11
18 18 18 16 15 17 17 14 15 14 15 15 13 14 17 19 19 20 19 19 19 19 18 19 19 20 20 20 20 19 19 19 18 18 18 19 19 19 19 18 19 19 19 19 19 19 18 18 18 17 16 16 15 14
18 18 17 17 16 15 14 14 14 13 13 14 16 17 17 20 19 20 19 19 20 20 20 20 19 19 19 19 19 19 19 18 17 17 16 16 17 17 18 19 19 19 19 19 19 19 19 18 18 18 17 15 13 12